| time (UTC) | temp F | wind direction | speed MPH | gust MPH | rain 1hr in | rain 24hr in | rain mn in | humidity % | barometer mb |
| 20260904210004 | 90 | 166 | 0.0 | 0.0 | 0.00 | 0.06 | 0.06 | 78 | 1004.9 |
| 20260904205904 | 90 | 165 | 0.0 | 0.0 | 0.00 | 0.06 | 0.06 | 78 | 1004.9 |
| 20260904205801 | 90 | 165 | 0.0 | 0.0 | 0.00 | 0.06 | 0.06 | 78 | 1004.9 |
| 20260904205702 | 90 | 152 | 0.0 | 0.0 | 0.00 | 0.06 | 0.06 | 78 | 1005.1 |
| 20260904205603 | 90 | 202 | 0.0 | 0.0 | 0.00 | 0.06 | 0.06 | 78 | 1005.1 |
| 20260904205505 | 89 | 202 | 0.0 | 0.0 | 0.00 | 0.06 | 0.06 | 78 | 1005.1 |
| 20260904205404 | 90 | 202 | 0.0 | 0.0 | 0.00 | 0.06 | 0.06 | 78 | 1005.1 |
| 20260904205305 | 89 | 202 | 0.0 | 0.0 | 0.00 | 0.06 | 0.06 | 79 | 1005.1 |
| 20260904205206 | 89 | 173 | 0.0 | 0.0 | 0.00 | 0.06 | 0.06 | 79 | 1005.2 |
| 20260904205104 | 89 | 172 | 0.0 | 0.0 | 0.00 | 0.06 | 0.06 | 79 | 1005.2 |
| 20260904205003 | 89 | 173 | 0.0 | 0.0 | 0.00 | 0.06 | 0.06 | 79 | 1005.2 |
| 20260904204904 | 89 | 159 | 0.0 | 0.0 | 0.00 | 0.06 | 0.06 | 79 | 1005.2 |
| 20260904204802 | 89 | 158 | 0.0 | 0.0 | 0.00 | 0.06 | 0.06 | 79 | 1005.3 |
| 20260904204703 | 89 | 159 | 0.0 | 0.0 | 0.00 | 0.06 | 0.06 | 79 | 1005.3 |
| 20260904204605 | 89 | 159 | 0.0 | 0.0 | 0.00 | 0.06 | 0.06 | 79 | 1005.3 |
| 20260904204504 | 89 | 159 | 0.0 | 0.0 | 0.00 | 0.06 | 0.06 | 79 | 1005.3 |
| 20260904204403 | 89 | 131 | 0.0 | 0.0 | 0.00 | 0.06 | 0.06 | 78 | 1005.3 |
| 20260904204305 | 89 | 131 | 0.0 | 0.0 | 0.00 | 0.06 | 0.06 | 78 | 1005.3 |
| 20260904204204 | 89 | 131 | 0.0 | 0.0 | 0.00 | 0.06 | 0.06 | 78 | 1005.3 |
| 20260904204102 | 89 | 131 | 0.0 | 0.0 | 0.00 | 0.06 | 0.06 | 78 | 1005.4 |
| 20260904204002 | 89 | 133 | 0.0 | 0.0 | 0.00 | 0.06 | 0.06 | 78 | 1005.4 |
| 20260904203904 | 89 | 133 | 0.0 | 0.0 | 0.00 | 0.06 | 0.06 | 77 | 1005.4 |
| 20260904203803 | 89 | 131 | 0.0 | 0.0 | 0.00 | 0.06 | 0.06 | 78 | 1005.4 |
| 20260904203704 | 89 | 131 | 0.0 | 0.0 | 0.00 | 0.06 | 0.06 | 78 | 1005.4 |
| 20260904203604 | 89 | 131 | 0.0 | 0.0 | 0.00 | 0.06 | 0.06 | 80 | 1005.4 |
| 20260904203505 | 89 | 131 | 0.0 | 0.0 | 0.00 | 0.06 | 0.06 | 80 | 1005.4 |
| 20260904203405 | 89 | 131 | 0.0 | 0.0 | 0.00 | 0.06 | 0.06 | 80 | 1005.4 |
| 20260904203304 | 89 | 131 | 0.0 | 0.0 | 0.00 | 0.06 | 0.06 | 80 | 1005.4 |
| 20260904203203 | 88 | 133 | 0.0 | 0.0 | 0.00 | 0.06 | 0.06 | 79 | 1005.5 |
| 20260904203102 | 88 | 133 | 0.0 | 0.0 | 0.00 | 0.06 | 0.06 | 81 | 1005.4 |
| 20260904203002 | 88 | 133 | 0.0 | 0.0 | 0.00 | 0.06 | 0.06 | 81 | 1005.6 |
| 20260904202904 | 88 | 133 | 0.0 | 0.0 | 0.00 | 0.06 | 0.06 | 81 | 1005.6 |
| 20260904202804 | 87 | 196 | 0.0 | 0.0 | 0.00 | 0.06 | 0.06 | 82 | 1005.5 |
| 20260904202704 | 87 | 197 | 0.0 | 0.0 | 0.00 | 0.06 | 0.06 | 82 | 1005.7 |
| 20260904202603 | 87 | 199 | 0.0 | 0.0 | 0.00 | 0.06 | 0.06 | 82 | 1005.7 |
| 20260904202503 | 87 | 200 | 0.0 | 0.0 | 0.00 | 0.06 | 0.06 | 83 | 1005.7 |
| 20260904202402 | 87 | 200 | 0.0 | 0.0 | 0.00 | 0.06 | 0.06 | 83 | 1005.8 |
| 20260904202305 | 87 | 200 | 0.0 | 0.0 | 0.00 | 0.06 | 0.06 | 83 | 1005.8 |
| 20260904202203 | 87 | 200 | 0.0 | 0.0 | 0.00 | 0.06 | 0.06 | 83 | 1005.8 |
| 20260904202103 | 87 | 200 | 0.0 | 0.0 | 0.00 | 0.06 | 0.06 | 84 | 1005.9 |
| 20260904202004 | 87 | 200 | 0.0 | 0.0 | 0.00 | 0.06 | 0.06 | 84 | 1005.9 |
| 20260904201902 | 87 | 200 | 0.0 | 0.0 | 0.00 | 0.06 | 0.06 | 84 | 1005.9 |
| 20260904201803 | 87 | 206 | 0.0 | 0.0 | 0.00 | 0.06 | 0.06 | 84 | 1005.9 |
| 20260904201704 | 87 | 206 | 0.0 | 0.0 | 0.00 | 0.06 | 0.06 | 84 | 1006.0 |
| 20260904201604 | 87 | 183 | 0.0 | 0.0 | 0.00 | 0.06 | 0.06 | 84 | 1005.9 |
| 20260904201503 | 87 | 183 | 0.0 | 0.0 | 0.00 | 0.06 | 0.06 | 84 | 1006.0 |
| 20260904201402 | 87 | 121 | 0.0 | 0.0 | 0.00 | 0.06 | 0.06 | 84 | 1005.9 |
| 20260904201304 | 87 | 121 | 0.0 | 0.0 | 0.00 | 0.06 | 0.06 | 84 | 1006.0 |
| 20260904201204 | 87 | 121 | 0.0 | 0.0 | 0.00 | 0.06 | 0.06 | 84 | 1005.9 |
| 20260904201104 | 86 | 121 | 0.0 | 0.0 | 0.00 | 0.06 | 0.06 | 84 | 1005.9 |
| 20260904201004 | 86 | 121 | 0.0 | 0.0 | 0.00 | 0.06 | 0.06 | 84 | 1005.9 |
| 20260904200904 | 86 | 121 | 0.0 | 0.0 | 0.00 | 0.06 | 0.06 | 84 | 1005.9 |
| 20260904200804 | 86 | 173 | 0.0 | 0.0 | 0.00 | 0.06 | 0.06 | 84 | 1005.8 |
| 20260904200704 | 86 | 173 | 0.0 | 0.0 | 0.00 | 0.06 | 0.06 | 84 | 1005.8 |
| 20260904200603 | 86 | 172 | 0.0 | 0.0 | 0.00 | 0.06 | 0.06 | 84 | 1005.9 |
| 20260904200504 | 86 | 169 | 0.0 | 0.0 | 0.00 | 0.06 | 0.06 | 84 | 1005.9 |
| 20260904200404 | 86 | 169 | 0.0 | 0.0 | 0.00 | 0.06 | 0.06 | 84 | 1005.9 |
| 20260904200303 | 86 | 169 | 0.0 | 0.0 | 0.00 | 0.06 | 0.06 | 84 | 1005.9 |
| 20260904200204 | 86 | 169 | 0.0 | 0.0 | 0.00 | 0.06 | 0.06 | 84 | 1005.9 |
| 20260904200104 | 86 | 169 | 0.0 | 0.0 | 0.00 | 0.06 | 0.06 | 85 | 1005.9 |
| 20260904200005 | 86 | 169 | 0.0 | 0.0 | 0.00 | 0.06 | 0.06 | 85 | 1005.8 |
| 20260904195905 | 86 | 169 | 0.0 | 0.0 | 0.00 | 0.06 | 0.06 | 85 | 1005.8 |
| 20260904195802 | 86 | 169 | 0.0 | 0.0 | 0.00 | 0.06 | 0.06 | 85 | 1005.8 |
| 20260904195703 | 86 | 169 | 0.0 | 0.0 | 0.00 | 0.06 | 0.06 | 86 | 1005.7 |
| 20260904195604 | 85 | 168 | 0.0 | 0.0 | 0.00 | 0.06 | 0.06 | 86 | 1005.8 |
| 20260904195506 | 85 | 355 | 0.0 | 0.0 | 0.00 | 0.06 | 0.06 | 86 | 1005.9 |
| 20260904195404 | 85 | 355 | 0.0 | 0.0 | 0.00 | 0.06 | 0.06 | 86 | 1005.8 |
| 20260904195306 | 85 | 357 | 0.0 | 0.0 | 0.00 | 0.06 | 0.06 | 86 | 1005.9 |
| 20260904195202 | 85 | 0 | 0.0 | 0.0 | 0.00 | 0.06 | 0.06 | 86 | 1005.9 |
| 20260904195102 | 85 | 300 | 0.0 | 0.0 | 0.00 | 0.06 | 0.06 | 88 | 1005.9 |
| 20260904195003 | 85 | 302 | 0.0 | 0.0 | 0.00 | 0.06 | 0.06 | 88 | 1005.9 |
| 20260904194904 | 85 | 106 | 0.0 | 0.0 | 0.00 | 0.06 | 0.06 | 89 | 1005.9 |
| 20260904194802 | 85 | 250 | 0.0 | 0.0 | 0.00 | 0.06 | 0.06 | 89 | 1005.9 |
| 20260904194703 | 84 | 250 | 0.0 | 0.0 | 0.00 | 0.06 | 0.06 | 89 | 1005.9 |
| 20260904194603 | 84 | 250 | 0.0 | 0.0 | 0.00 | 0.06 | 0.06 | 89 | 1005.9 |
| 20260904194504 | 84 | 250 | 0.0 | 0.0 | 0.00 | 0.06 | 0.06 | 89 | 1005.9 |
| 20260904194404 | 83 | 202 | 0.0 | 0.0 | 0.00 | 0.06 | 0.06 | 92 | 1005.9 |
| 20260904194303 | 82 | 228 | 0.0 | 0.0 | 0.00 | 0.06 | 0.06 | 93 | 1005.9 |
| 20260904194202 | 82 | 213 | 0.0 | 0.0 | 0.00 | 0.06 | 0.06 | 93 | 1005.9 |
| 20260904194106 | 82 | 209 | 0.0 | 0.0 | 0.00 | 0.06 | 0.06 | 93 | 1005.9 |
| 20260904194004 | 82 | 51 | 0.0 | 0.0 | 0.00 | 0.06 | 0.06 | 94 | 1005.9 |
| 20260904193901 | 81 | 51 | 0.0 | 0.0 | 0.00 | 0.06 | 0.06 | 96 | 1005.9 |
| 20260904193805 | 81 | 51 | 0.0 | 0.0 | 0.00 | 0.06 | 0.06 | 96 | 1005.9 |
| 20260904193707 | 81 | 51 | 0.0 | 0.0 | 0.00 | 0.06 | 0.06 | 97 | 1005.9 |
| 20260904193604 | 80 | 51 | 0.0 | 0.0 | 0.00 | 0.06 | 0.06 | 97 | 1005.9 |
| 20260904193456 | 80 | 49 | 0.0 | 0.0 | 0.00 | 0.06 | 0.06 | 97 | 1005.9 |
| 20260904193351 | 80 | 49 | 0.0 | 0.0 | 0.00 | 0.06 | 0.06 | 98 | 1005.9 |
| 20260904193247 | 80 | 49 | 0.0 | 0.0 | 0.00 | 0.06 | 0.06 | 98 | 1005.9 |
| 20260904193138 | 80 | 49 | 0.0 | 0.0 | 0.00 | 0.06 | 0.06 | 98 | 1005.9 |
| 20260904193036 | 80 | 47 | 0.0 | 0.0 | 0.00 | 0.06 | 0.06 | 98 | 1005.9 |
| 20260904192938 | 80 | 48 | 0.0 | 0.0 | 0.00 | 0.06 | 0.06 | 98 | 1005.9 |
| 20260904192837 | 80 | 48 | 0.0 | 0.0 | 0.00 | 0.06 | 0.06 | 98 | 1005.8 |
| 20260904192738 | 80 | 48 | 0.0 | 0.0 | 0.00 | 0.06 | 0.06 | 98 | 1005.9 |
| 20260904192636 | 80 | 48 | 0.0 | 0.0 | 0.00 | 0.06 | 0.06 | 98 | 1005.9 |
| 20260904192538 | 80 | 48 | 0.0 | 0.0 | 0.00 | 0.06 | 0.06 | 98 | 1005.8 |
| 20260904192438 | 80 | 48 | 0.0 | 0.0 | 0.00 | 0.06 | 0.06 | 98 | 1005.9 |
| 20260904192335 | 80 | 48 | 0.0 | 0.0 | 0.00 | 0.06 | 0.06 | 98 | 1005.9 |
| 20260904192236 | 80 | 48 | 0.0 | 0.0 | 0.00 | 0.06 | 0.06 | 98 | 1005.9 |
| 20260904192136 | 80 | 48 | 0.0 | 0.0 | 0.00 | 0.06 | 0.06 | 98 | 1006.0 |
| 20260904192036 | 80 | 48 | 0.0 | 0.0 | 0.00 | 0.06 | 0.06 | 98 | 1006.0 |
| 20260904191937 | 79 | 48 | 0.0 | 0.0 | 0.00 | 0.06 | 0.06 | 98 | 1006.0 |
| 20260904191835 | 79 | 48 | 0.0 | 0.0 | 0.00 | 0.06 | 0.06 | 98 | 1006.0 |
| 20260904191737 | 79 | 48 | 0.0 | 0.0 | 0.00 | 0.06 | 0.06 | 98 | 1006.0 |
| 20260904191640 | 79 | 48 | 0.0 | 0.0 | 0.00 | 0.06 | 0.06 | 98 | 1006.0 |
| 20260904191537 | 79 | 48 | 0.0 | 0.0 | 0.00 | 0.06 | 0.06 | 98 | 1006.0 |
| 20260904191436 | 79 | 48 | 0.0 | 0.0 | 0.00 | 0.06 | 0.06 | 98 | 1006.1 |
| 20260904191337 | 79 | 48 | 0.0 | 0.0 | 0.00 | 0.06 | 0.06 | 98 | 1006.1 |
| 20260904191233 | 79 | 48 | 0.0 | 0.0 | 0.00 | 0.06 | 0.06 | 98 | 1006.2 |
| 20260904191133 | 79 | 48 | 0.0 | 0.0 | 0.00 | 0.06 | 0.06 | 98 | 1006.1 |
| 20260904191031 | 79 | 48 | 0.0 | 0.0 | 0.00 | 0.06 | 0.06 | 98 | 1006.2 |
| 20260904190933 | 79 | 48 | 0.0 | 0.0 | 0.00 | 0.06 | 0.06 | 98 | 1006.3 |
| 20260904190833 | 79 | 48 | 0.0 | 0.0 | 0.00 | 0.06 | 0.06 | 98 | 1006.2 |
| 20260904190732 | 79 | 48 | 0.0 | 0.0 | 0.00 | 0.06 | 0.06 | 97 | 1006.3 |
| 20260904190633 | 79 | 48 | 0.0 | 0.0 | 0.00 | 0.06 | 0.06 | 97 | 1006.3 |
| 20260904190533 | 78 | 48 | 0.0 | 0.0 | 0.00 | 0.06 | 0.06 | 97 | 1006.3 |
| 20260904190432 | 78 | 48 | 0.0 | 0.0 | 0.00 | 0.06 | 0.06 | 97 | 1006.4 |
| 20260904190332 | 78 | 48 | 0.0 | 0.0 | 0.00 | 0.06 | 0.06 | 97 | 1006.4 |
| 20260904190232 | 78 | 48 | 0.0 | 0.0 | 0.00 | 0.06 | 0.06 | 97 | 1006.3 |
| 20260904190132 | 78 | 48 | 0.0 | 0.0 | 0.00 | 0.06 | 0.06 | 97 | 1006.4 |
| 20260904190033 | 78 | 48 | 0.0 | 0.0 | 0.00 | 0.06 | 0.06 | 97 | 1006.4 |
| 20260904185931 | 78 | 48 | 0.0 | 0.0 | 0.00 | 0.06 | 0.06 | 97 | 1006.4 |
| 20260904185831 | 78 | 48 | 0.0 | 0.0 | 0.00 | 0.06 | 0.06 | 97 | 1006.4 |
| 20260904185735 | 78 | 48 | 0.0 | 0.0 | 0.00 | 0.06 | 0.06 | 96 | 1006.4 |
| 20260904185633 | 78 | 48 | 0.0 | 0.0 | 0.00 | 0.06 | 0.06 | 96 | 1006.5 |
| 20260904185533 | 78 | 48 | 0.0 | 0.0 | 0.00 | 0.06 | 0.06 | 96 | 1006.5 |
| 20260904185431 | 78 | 48 | 0.0 | 0.0 | 0.00 | 0.06 | 0.06 | 96 | 1006.5 |
| 20260904185333 | 78 | 48 | 0.0 | 0.0 | 0.00 | 0.06 | 0.06 | 96 | 1006.5 |
| 20260904185234 | 78 | 48 | 0.0 | 0.0 | 0.00 | 0.06 | 0.06 | 96 | 1006.5 |
| 20260904185132 | 78 | 48 | 0.0 | 0.0 | 0.00 | 0.06 | 0.06 | 96 | 1006.5 |
| 20260904185032 | 78 | 48 | 0.0 | 0.0 | 0.00 | 0.06 | 0.06 | 96 | 1006.5 |
| 20260904184933 | 78 | 48 | 0.0 | 0.0 | 0.00 | 0.06 | 0.06 | 96 | 1006.5 |
| 20260904184835 | 78 | 48 | 0.0 | 0.0 | 0.00 | 0.06 | 0.06 | 96 | 1006.5 |
| 20260904184732 | 78 | 48 | 0.0 | 0.0 | 0.00 | 0.06 | 0.06 | 96 | 1006.5 |
| 20260904184633 | 78 | 48 | 0.0 | 0.0 | 0.00 | 0.06 | 0.06 | 96 | 1006.5 |
| 20260904184533 | 78 | 48 | 0.0 | 0.0 | 0.00 | 0.06 | 0.06 | 96 | 1006.6 |
| 20260904184432 | 78 | 48 | 0.0 | 0.0 | 0.00 | 0.06 | 0.06 | 96 | 1006.6 |
| 20260904184331 | 78 | 48 | 0.0 | 0.0 | 0.00 | 0.06 | 0.06 | 95 | 1006.6 |
| 20260904184231 | 78 | 48 | 0.0 | 0.0 | 0.00 | 0.06 | 0.06 | 95 | 1006.6 |
| 20260904184130 | 78 | 48 | 0.0 | 0.0 | 0.00 | 0.06 | 0.06 | 95 | 1006.7 |
| 20260904184027 | 78 | 48 | 0.0 | 0.0 | 0.00 | 0.06 | 0.06 | 95 | 1006.7 |
| 20260904183919 | 78 | 48 | 0.0 | 0.0 | 0.00 | 0.06 | 0.06 | 95 | 1006.7 |
| 20260904183816 | 78 | 48 | 0.0 | 0.0 | 0.00 | 0.06 | 0.06 | 95 | 1006.7 |
| 20260904183714 | 79 | 48 | 0.0 | 0.0 | 0.00 | 0.06 | 0.06 | 95 | 1006.8 |
| 20260904183610 | 79 | 48 | 0.0 | 0.0 | 0.00 | 0.06 | 0.06 | 95 | 1006.8 |
| 20260904183505 | 79 | 48 | 0.0 | 0.0 | 0.00 | 0.06 | 0.06 | 95 | 1006.9 |
| 20260904183403 | 79 | 48 | 0.0 | 0.0 | 0.00 | 0.06 | 0.06 | 95 | 1006.8 |
| 20260904183304 | 79 | 48 | 0.0 | 0.0 | 0.00 | 0.06 | 0.06 | 95 | 1006.9 |
| 20260904183203 | 79 | 48 | 0.0 | 0.0 | 0.00 | 0.06 | 0.06 | 95 | 1006.9 |
| 20260904183104 | 79 | 48 | 0.0 | 0.0 | 0.00 | 0.06 | 0.06 | 95 | 1006.9 |
| 20260904183004 | 79 | 48 | 0.0 | 0.0 | 0.00 | 0.06 | 0.06 | 95 | 1006.9 |
| 20260904182903 | 79 | 48 | 0.0 | 0.0 | 0.00 | 0.06 | 0.06 | 95 | 1006.9 |
| 20260904182801 | 79 | 48 | 0.0 | 0.0 | 0.00 | 0.06 | 0.06 | 95 | 1007.0 |
| 20260904182705 | 79 | 48 | 0.0 | 0.0 | 0.00 | 0.06 | 0.06 | 95 | 1007.0 |
| 20260904182603 | 79 | 48 | 0.0 | 0.0 | 0.00 | 0.06 | 0.06 | 95 | 1007.0 |
| 20260904182505 | 79 | 48 | 0.0 | 0.0 | 0.00 | 0.06 | 0.06 | 95 | 1007.1 |
| 20260904182404 | 79 | 48 | 0.0 | 0.0 | 0.00 | 0.06 | 0.06 | 95 | 1007.1 |
| 20260904182305 | 79 | 48 | 0.0 | 0.0 | 0.00 | 0.06 | 0.06 | 95 | 1007.1 |
| 20260904182203 | 79 | 48 | 0.0 | 0.0 | 0.00 | 0.06 | 0.06 | 95 | 1007.1 |
| 20260904182102 | 79 | 48 | 0.0 | 0.0 | 0.00 | 0.06 | 0.06 | 95 | 1007.1 |
| 20260904182003 | 79 | 48 | 0.0 | 0.0 | 0.00 | 0.06 | 0.06 | 95 | 1007.1 |
| 20260904181902 | 80 | 48 | 0.0 | 0.0 | 0.00 | 0.06 | 0.06 | 95 | 1007.1 |
| 20260904181804 | 80 | 48 | 0.0 | 0.0 | 0.00 | 0.06 | 0.06 | 95 | 1007.2 |
| 20260904181704 | 80 | 48 | 0.0 | 0.0 | 0.00 | 0.06 | 0.06 | 95 | 1007.2 |
| 20260904181604 | 80 | 48 | 0.0 | 0.0 | 0.00 | 0.06 | 0.06 | 95 | 1007.1 |
| 20260904181502 | 80 | 48 | 0.0 | 0.0 | 0.00 | 0.06 | 0.06 | 95 | 1007.2 |
| 20260904181405 | 80 | 48 | 0.0 | 0.0 | 0.00 | 0.06 | 0.06 | 95 | 1007.2 |
| 20260904181303 | 80 | 48 | 0.0 | 0.0 | 0.00 | 0.06 | 0.06 | 95 | 1007.2 |
| 20260904181202 | 80 | 48 | 0.0 | 0.0 | 0.00 | 0.06 | 0.06 | 95 | 1007.2 |
| 20260904181103 | 80 | 47 | 0.0 | 0.0 | 0.00 | 0.06 | 0.06 | 95 | 1007.2 |
| 20260904181007 | 80 | 39 | 0.0 | 0.0 | 0.00 | 0.06 | 0.06 | 95 | 1007.3 |
| 20260904180904 | 80 | 39 | 0.0 | 0.0 | 0.00 | 0.06 | 0.06 | 95 | 1007.3 |
| 20260904180802 | 80 | 39 | 0.0 | 0.0 | 0.01 | 0.06 | 0.06 | 95 | 1007.3 |
| 20260904180659 | 80 | 41 | 0.0 | 0.0 | 0.01 | 0.06 | 0.06 | 95 | 1007.4 |
| 20260904180556 | 80 | 47 | 0.0 | 0.0 | 0.02 | 0.06 | 0.06 | 95 | 1007.4 |
| 20260904180454 | 80 | 189 | 0.0 | 0.0 | 0.02 | 0.06 | 0.06 | 95 | 1007.4 |
| 20260904180350 | 80 | 189 | 0.0 | 0.0 | 0.02 | 0.06 | 0.06 | 95 | 1007.4 |
| 20260904180249 | 80 | 189 | 0.0 | 0.0 | 0.03 | 0.06 | 0.06 | 95 | 1007.4 |
| 20260904180140 | 80 | 189 | 0.0 | 0.0 | 0.03 | 0.06 | 0.06 | 95 | 1007.3 |
| 20260904180035 | 80 | 189 | 0.0 | 0.0 | 0.03 | 0.06 | 0.06 | 95 | 1007.4 |
| 20260904175934 | 80 | 188 | 0.0 | 0.0 | 0.03 | 0.03 | 0.06 | 95 | 1007.5 |
| 20260904175836 | 80 | 188 | 0.0 | 0.0 | 0.03 | 0.03 | 0.06 | 95 | 1007.5 |
| 20260904175736 | 81 | 188 | 0.0 | 0.0 | 0.03 | 0.03 | 0.06 | 95 | 1007.5 |
| 20260904175635 | 81 | 188 | 0.0 | 0.0 | 0.03 | 0.03 | 0.06 | 95 | 1007.5 |
| 20260904175534 | 81 | 188 | 0.0 | 0.0 | 0.03 | 0.03 | 0.06 | 95 | 1007.5 |
| 20260904175435 | 81 | 176 | 0.0 | 0.0 | 0.04 | 0.03 | 0.06 | 94 | 1007.4 |
| 20260904175334 | 81 | 254 | 0.0 | 0.0 | 0.04 | 0.03 | 0.06 | 94 | 1007.5 |
| 20260904175235 | 81 | 254 | 0.0 | 0.0 | 0.04 | 0.03 | 0.06 | 95 | 1007.5 |
| 20260904175135 | 81 | 254 | 0.0 | 0.0 | 0.04 | 0.03 | 0.06 | 95 | 1007.5 |
| 20260904175033 | 81 | 254 | 0.0 | 0.0 | 0.04 | 0.03 | 0.06 | 95 | 1007.6 |
| 20260904174935 | 81 | 254 | 0.0 | 0.0 | 0.04 | 0.03 | 0.06 | 94 | 1007.5 |
| 20260904174834 | 81 | 254 | 0.0 | 0.0 | 0.04 | 0.03 | 0.06 | 94 | 1007.6 |
| 20260904174734 | 81 | 254 | 0.0 | 0.0 | 0.05 | 0.03 | 0.06 | 94 | 1007.5 |
| 20260904174635 | 81 | 254 | 0.0 | 0.0 | 0.05 | 0.03 | 0.06 | 94 | 1007.6 |
| 20260904174534 | 81 | 254 | 0.0 | 0.0 | 0.05 | 0.03 | 0.06 | 94 | 1007.6 |
| 20260904174434 | 81 | 254 | 0.0 | 0.0 | 0.05 | 0.03 | 0.06 | 94 | 1007.5 |
| 20260904174334 | 81 | 254 | 0.0 | 0.0 | 0.06 | 0.03 | 0.06 | 94 | 1007.6 |
| 20260904174233 | 81 | 254 | 0.0 | 0.0 | 0.06 | 0.03 | 0.06 | 94 | 1007.6 |
| 20260904174134 | 81 | 254 | 0.0 | 0.0 | 0.06 | 0.03 | 0.06 | 94 | 1007.7 |
| 20260904174035 | 81 | 254 | 0.0 | 0.0 | 0.06 | 0.03 | 0.06 | 94 | 1007.7 |
| 20260904173934 | 81 | 254 | 0.0 | 0.0 | 0.06 | 0.03 | 0.06 | 94 | 1007.7 |
| 20260904173834 | 81 | 254 | 0.0 | 0.0 | 0.06 | 0.03 | 0.06 | 94 | 1007.6 |
| 20260904173733 | 81 | 254 | 0.0 | 0.0 | 0.06 | 0.03 | 0.06 | 94 | 1007.5 |
| 20260904173636 | 81 | 254 | 0.0 | 0.0 | 0.06 | 0.03 | 0.06 | 94 | 1007.4 |
| 20260904173533 | 81 | 254 | 0.0 | 0.0 | 0.06 | 0.03 | 0.06 | 94 | 1007.4 |
| 20260904173434 | 81 | 254 | 0.0 | 0.0 | 0.06 | 0.03 | 0.06 | 93 | 1007.4 |
| 20260904173333 | 82 | 254 | 0.0 | 0.0 | 0.06 | 0.03 | 0.06 | 93 | 1007.3 |
| 20260904173233 | 82 | 254 | 0.0 | 0.0 | 0.06 | 0.03 | 0.06 | 93 | 1007.3 |
| 20260904173135 | 82 | 254 | 0.0 | 0.0 | 0.06 | 0.03 | 0.06 | 93 | 1007.3 |
| 20260904173033 | 82 | 254 | 0.0 | 0.0 | 0.06 | 0.03 | 0.06 | 93 | 1007.3 |
| 20260904172933 | 82 | 254 | 0.0 | 0.0 | 0.06 | 0.03 | 0.06 | 93 | 1007.3 |
| 20260904172836 | 82 | 254 | 0.0 | 0.0 | 0.06 | 0.03 | 0.06 | 93 | 1007.4 |
| 20260904172734 | 82 | 254 | 0.0 | 0.0 | 0.06 | 0.03 | 0.06 | 93 | 1007.4 |
| 20260904172633 | 82 | 254 | 0.0 | 0.0 | 0.06 | 0.03 | 0.06 | 93 | 1007.4 |
| 20260904172533 | 82 | 254 | 0.0 | 0.0 | 0.06 | 0.03 | 0.06 | 93 | 1007.3 |
| 20260904172433 | 82 | 254 | 0.0 | 0.0 | 0.06 | 0.03 | 0.06 | 92 | 1007.4 |
| 20260904172335 | 82 | 254 | 0.0 | 0.0 | 0.06 | 0.03 | 0.06 | 92 | 1007.3 |
| 20260904172235 | 82 | 254 | 0.0 | 0.0 | 0.06 | 0.03 | 0.06 | 92 | 1007.1 |
| 20260904172133 | 82 | 254 | 0.0 | 0.0 | 0.06 | 0.03 | 0.06 | 92 | 1007.1 |
| 20260904172033 | 82 | 254 | 0.0 | 0.0 | 0.06 | 0.03 | 0.06 | 92 | 1007.2 |
| 20260904171932 | 82 | 254 | 0.0 | 0.0 | 0.06 | 0.03 | 0.06 | 92 | 1007.1 |
| 20260904171834 | 82 | 254 | 0.0 | 0.0 | 0.06 | 0.03 | 0.06 | 91 | 1007.2 |
| 20260904171733 | 82 | 254 | 0.0 | 0.0 | 0.06 | 0.03 | 0.06 | 91 | 1007.2 |
| 20260904171632 | 83 | 254 | 0.0 | 0.0 | 0.06 | 0.03 | 0.06 | 87 | 1007.3 |
| 20260904171533 | 83 | 254 | 0.0 | 0.0 | 0.06 | 0.03 | 0.06 | 87 | 1007.3 |
| 20260904171434 | 83 | 254 | 0.0 | 0.0 | 0.06 | 0.03 | 0.06 | 87 | 1007.4 |
| 20260904171334 | 83 | 254 | 0.0 | 0.0 | 0.06 | 0.03 | 0.06 | 87 | 1007.4 |
| 20260904171233 | 83 | 254 | 0.0 | 0.0 | 0.06 | 0.03 | 0.06 | 87 | 1007.5 |
| 20260904171132 | 83 | 254 | 0.0 | 0.0 | 0.06 | 0.03 | 0.06 | 87 | 1007.5 |
| 20260904171032 | 83 | 254 | 0.0 | 0.0 | 0.06 | 0.03 | 0.06 | 86 | 1007.5 |
| 20260904170934 | 83 | 254 | 0.0 | 0.0 | 0.06 | 0.03 | 0.06 | 86 | 1007.5 |
| 20260904170832 | 83 | 254 | 0.0 | 0.0 | 0.06 | 0.03 | 0.05 | 86 | 1007.5 |
| 20260904170732 | 84 | 254 | 0.0 | 0.0 | 0.05 | 0.03 | 0.05 | 86 | 1007.6 |
| 20260904170634 | 84 | 254 | 0.0 | 0.0 | 0.05 | 0.03 | 0.04 | 86 | 1007.6 |
| 20260904170534 | 84 | 254 | 0.0 | 0.0 | 0.04 | 0.03 | 0.04 | 85 | 1007.6 |
| 20260904170433 | 84 | 254 | 0.0 | 0.0 | 0.04 | 0.03 | 0.04 | 85 | 1007.6 |
| 20260904170332 | 84 | 254 | 0.0 | 0.0 | 0.04 | 0.03 | 0.03 | 85 | 1007.6 |
| 20260904170233 | 84 | 254 | 0.0 | 0.0 | 0.03 | 0.03 | 0.03 | 85 | 1007.7 |
| 20260904170133 | 84 | 254 | 0.0 | 0.0 | 0.03 | 0.03 | 0.03 | 84 | 1007.7 |
| 20260904170035 | 85 | 254 | 0.0 | 0.0 | 0.03 | 0.03 | 0.03 | 84 | 1007.7 |
| 20260904165933 | 85 | 254 | 0.0 | 0.0 | 0.03 | 0.00 | 0.03 | 84 | 1007.8 |
| 20260904165833 | 85 | 254 | 0.0 | 0.0 | 0.03 | 0.00 | 0.03 | 84 | 1007.9 |
| 20260904165735 | 85 | 254 | 0.0 | 0.0 | 0.03 | 0.00 | 0.03 | 83 | 1008.0 |
| 20260904165635 | 85 | 258 | 0.0 | 0.0 | 0.03 | 0.00 | 0.03 | 83 | 1008.0 |
| 20260904165534 | 85 | 258 | 0.0 | 0.0 | 0.03 | 0.00 | 0.02 | 83 | 1008.1 |
| 20260904165432 | 85 | 258 | 0.0 | 0.0 | 0.02 | 0.00 | 0.02 | 83 | 1008.1 |
| 20260904165333 | 85 | 258 | 0.0 | 0.0 | 0.02 | 0.00 | 0.02 | 83 | 1008.0 |
| 20260904165233 | 86 | 258 | 0.0 | 0.0 | 0.02 | 0.00 | 0.02 | 82 | 1008.0 |
| 20260904165133 | 86 | 258 | 0.0 | 0.0 | 0.02 | 0.00 | 0.02 | 82 | 1007.9 |
| 20260904165034 | 86 | 258 | 0.0 | 0.0 | 0.02 | 0.00 | 0.02 | 82 | 1007.9 |
| 20260904164933 | 86 | 258 | 0.0 | 0.0 | 0.02 | 0.00 | 0.02 | 82 | 1007.9 |
| 20260904164832 | 86 | 258 | 0.0 | 0.0 | 0.02 | 0.00 | 0.01 | 81 | 1007.9 |
| 20260904164732 | 86 | 258 | 0.0 | 0.0 | 0.01 | 0.00 | 0.01 | 81 | 1007.8 |
| 20260904164632 | 86 | 193 | 0.0 | 0.0 | 0.01 | 0.00 | 0.01 | 81 | 1007.9 |
| 20260904164532 | 87 | 193 | 0.0 | 0.0 | 0.01 | 0.00 | 0.01 | 80 | 1008.0 |
| 20260904164431 | 87 | 193 | 0.0 | 0.0 | 0.01 | 0.00 | 0.01 | 80 | 1008.0 |
| 20260904164330 | 87 | 192 | 0.0 | 0.0 | 0.00 | 0.00 | 0.00 | 79 | 1008.0 |
| 20260904164223 | 87 | 192 | 0.0 | 0.0 | 0.00 | 0.00 | 0.00 | 79 | 1008.0 |
| 20260904164121 | 87 | 192 | 0.0 | 0.0 | 0.00 | 0.00 | 0.00 | 79 | 1008.1 |
| 20260904164019 | 87 | 192 | 0.0 | 0.0 | 0.00 | 0.00 | 0.00 | 78 | 1008.0 |
| 20260904163916 | 87 | 192 | 0.0 | 0.0 | 0.00 | 0.00 | 0.00 | 78 | 1007.9 |
| 20260904163808 | 87 | 192 | 0.0 | 0.0 | 0.00 | 0.00 | 0.00 | 78 | 1007.9 |
| 20260904163703 | 87 | 192 | 0.0 | 0.0 | 0.00 | 0.00 | 0.00 | 78 | 1007.9 |
| 20260904163603 | 88 | 192 | 0.0 | 0.0 | 0.00 | 0.00 | 0.00 | 78 | 1007.9 |
| 20260904163504 | 88 | 192 | 0.0 | 0.0 | 0.00 | 0.00 | 0.00 | 78 | 1008.0 |
| 20260904163404 | 88 | 192 | 0.0 | 0.0 | 0.00 | 0.00 | 0.00 | 78 | 1008.0 |
| 20260904163303 | 88 | 192 | 0.0 | 0.0 | 0.00 | 0.00 | 0.00 | 77 | 1008.0 |
| 20260904163202 | 88 | 190 | 0.0 | 0.0 | 0.00 | 0.00 | 0.00 | 77 | 1008.0 |
| 20260904163102 | 88 | 192 | 0.0 | 0.0 | 0.00 | 0.00 | 0.00 | 78 | 1007.9 |
| 20260904163004 | 88 | 210 | 0.0 | 0.0 | 0.00 | 0.00 | 0.00 | 78 | 1007.9 |
| 20260904162902 | 89 | 207 | 0.0 | 0.0 | 0.00 | 0.00 | 0.00 | 78 | 1007.8 |
| 20260904162755 | 89 | 279 | 0.0 | 0.0 | 0.00 | 0.00 | 0.00 | 77 | 1007.7 |
| 20260904162636 | 89 | 7 | 0.0 | 0.0 | 0.00 | 0.00 | 0.00 | 77 | 1007.6 |
| 20260904162535 | 89 | 244 | 0.0 | 0.0 | 0.00 | 0.00 | 0.00 | 77 | 1007.6 |
| 20260904162432 | 89 | 248 | 0.0 | 0.0 | 0.00 | 0.00 | 0.00 | 77 | 1007.5 |
| 20260904162331 | 89 | 250 | 0.0 | 0.0 | 0.00 | 0.00 | 0.00 | 77 | 1007.4 |
| 20260904162228 | 89 | 250 | 0.0 | 0.0 | 0.00 | 0.00 | 0.00 | 77 | 1007.3 |
| 20260904162126 | 90 | 250 | 0.0 | 0.0 | 0.00 | 0.00 | 0.00 | 77 | 1007.2 |
| 20260904162022 | 90 | 248 | 0.0 | 0.0 | 0.00 | 0.00 | 0.00 | 77 | 1007.2 |
| 20260904161921 | 90 | 248 | 0.0 | 0.0 | 0.00 | 0.00 | 0.00 | 77 | 1007.2 |
| 20260904161815 | 90 | 244 | 0.0 | 0.0 | 0.00 | 0.00 | 0.00 | 77 | 1007.1 |
| 20260904161709 | 90 | 244 | 0.0 | 0.0 | 0.00 | 0.00 | 0.00 | 76 | 1007.2 |
| 20260904161603 | 90 | 243 | 0.0 | 0.0 | 0.00 | 0.00 | 0.00 | 76 | 1007.1 |
| 20260904161503 | 90 | 241 | 0.0 | 0.0 | 0.00 | 0.00 | 0.00 | 76 | 1007.1 |
| 20260904161402 | 91 | 288 | 0.0 | 0.0 | 0.00 | 0.00 | 0.00 | 76 | 1007.1 |
| 20260904161302 | 91 | 240 | 0.0 | 0.0 | 0.00 | 0.00 | 0.00 | 76 | 1007.0 |
| 20260904161203 | 91 | 281 | 0.0 | 0.0 | 0.00 | 0.00 | 0.00 | 77 | 1007.1 |
| 20260904161104 | 91 | 269 | 0.0 | 0.0 | 0.00 | 0.00 | 0.00 | 77 | 1007.1 |
| 20260904161002 | 91 | 251 | 0.0 | 0.0 | 0.00 | 0.00 | 0.00 | 77 | 1007.0 |
| 20260904160904 | 91 | 189 | 0.0 | 0.0 | 0.00 | 0.00 | 0.00 | 77 | 1007.1 |
| 20260904160803 | 91 | 34 | 0.0 | 0.0 | 0.00 | 0.00 | 0.00 | 77 | 1007.1 |
| 20260904160705 | 91 | 16 | 0.0 | 0.0 | 0.00 | 0.00 | 0.00 | 77 | 1007.1 |
| 20260904160603 | 91 | 243 | 0.0 | 0.0 | 0.00 | 0.00 | 0.00 | 77 | 1007.1 |
| 20260904160502 | 91 | 259 | 0.0 | 0.0 | 0.00 | 0.00 | 0.00 | 77 | 1007.1 |
| 20260904160405 | 91 | 319 | 0.0 | 0.0 | 0.00 | 0.00 | 0.00 | 77 | 1007.1 |
| 20260904160304 | 91 | 319 | 0.0 | 0.0 | 0.00 | 0.00 | 0.00 | 77 | 1006.9 |
| 20260904160203 | 91 | 319 | 0.0 | 0.0 | 0.00 | 0.00 | 0.00 | 76 | 1006.9 |
| 20260904160106 | 91 | 347 | 0.0 | 0.0 | 0.00 | 0.00 | 0.00 | 77 | 1006.9 |
| 20260904160007 | 91 | 106 | 0.0 | 0.0 | 0.00 | 0.00 | 0.00 | 78 | 1006.8 |
| 20260904155905 | 91 | 138 | 0.0 | 0.0 | 0.00 | 0.00 | 0.00 | 78 | 1006.9 |
| 20260904155802 | 91 | 142 | 0.0 | 0.0 | 0.00 | 0.00 | 0.00 | 81 | 1006.8 |
| 20260904155704 | 91 | 231 | 0.0 | 0.0 | 0.00 | 0.00 | 0.00 | 81 | 1006.9 |
| 20260904155605 | 91 | 243 | 0.0 | 0.0 | 0.00 | 0.00 | 0.00 | 81 | 1006.8 |
| 20260904155445 | 90 | 54 | 0.0 | 0.0 | 0.00 | 0.00 | 0.00 | 81 | 1006.9 |
| 20260904155339 | 90 | 54 | 0.0 | 0.0 | 0.00 | 0.00 | 0.00 | 83 | 1006.8 |
| 20260904155234 | 89 | 83 | 0.0 | 0.0 | 0.00 | 0.00 | 0.00 | 84 | 1006.8 |
| 20260904155131 | 89 | 114 | 0.0 | 0.0 | 0.00 | 0.00 | 0.00 | 87 | 1006.8 |
| 20260904155032 | 89 | 27 | 0.0 | 0.0 | 0.00 | 0.00 | 0.00 | 87 | 1006.8 |
| 20260904154931 | 88 | 28 | 0.0 | 0.0 | 0.00 | 0.00 | 0.00 | 87 | 1006.8 |
| 20260904154832 | 88 | 28 | 0.0 | 0.0 | 0.00 | 0.00 | 0.00 | 88 | 1006.7 |
| 20260904154731 | 88 | 25 | 0.0 | 0.0 | 0.00 | 0.00 | 0.00 | 89 | 1006.7 |
| 20260904154632 | 87 | 354 | 0.0 | 0.0 | 0.00 | 0.00 | 0.00 | 90 | 1006.7 |
| 20260904154535 | 87 | 354 | 0.0 | 0.0 | 0.00 | 0.00 | 0.00 | 90 | 1006.6 |
| 20260904154432 | 87 | 355 | 0.0 | 0.0 | 0.00 | 0.00 | 0.00 | 91 | 1006.6 |
| 20260904154331 | 87 | 354 | 0.0 | 0.0 | 0.00 | 0.00 | 0.00 | 91 | 1006.6 |
| 20260904154232 | 87 | 347 | 0.0 | 0.0 | 0.00 | 0.00 | 0.00 | 92 | 1006.6 |
| 20260904154133 | 87 | 179 | 0.0 | 0.0 | 0.00 | 0.00 | 0.00 | 92 | 1006.6 |
| 20260904154033 | 86 | 182 | 0.0 | 0.0 | 0.00 | 0.00 | 0.00 | 92 | 1006.6 |
| 20260904153932 | 86 | 233 | 0.0 | 0.0 | 0.00 | 0.00 | 0.00 | 93 | 1006.6 |
| 20260904153833 | 86 | 231 | 0.0 | 0.0 | 0.00 | 0.00 | 0.00 | 93 | 1006.6 |
| 20260904153733 | 86 | 231 | 0.0 | 0.0 | 0.00 | 0.00 | 0.00 | 94 | 1006.6 |
| 20260904153633 | 86 | 231 | 0.0 | 0.0 | 0.00 | 0.00 | 0.00 | 94 | 1006.6 |
| 20260904153532 | 86 | 247 | 0.0 | 0.0 | 0.00 | 0.00 | 0.00 | 94 | 1006.6 |
| 20260904153431 | 86 | 247 | 0.0 | 0.0 | 0.00 | 0.00 | 0.00 | 95 | 1006.5 |
| 20260904153334 | 86 | 152 | 0.0 | 0.0 | 0.00 | 0.00 | 0.00 | 95 | 1006.5 |
| 20260904153233 | 86 | 75 | 0.0 | 0.0 | 0.00 | 0.00 | 0.00 | 95 | 1006.5 |
| 20260904153131 | 86 | 209 | 0.0 | 0.0 | 0.00 | 0.00 | 0.00 | 95 | 1006.6 |
| 20260904153031 | 85 | 209 | 0.0 | 0.0 | 0.00 | 0.00 | 0.00 | 95 | 1006.6 |
| 20260904152932 | 85 | 207 | 0.0 | 0.0 | 0.00 | 0.00 | 0.00 | 95 | 1006.6 |
| 20260904152833 | 85 | 207 | 0.0 | 0.0 | 0.00 | 0.00 | 0.00 | 96 | 1006.7 |
| 20260904152733 | 85 | 207 | 0.0 | 0.0 | 0.00 | 0.00 | 0.00 | 96 | 1006.6 |
| 20260904152632 | 85 | 207 | 0.0 | 0.0 | 0.00 | 0.00 | 0.00 | 96 | 1006.6 |
| 20260904152531 | 85 | 207 | 0.0 | 0.0 | 0.00 | 0.00 | 0.00 | 96 | 1006.6 |
| 20260904152431 | 85 | 207 | 0.0 | 0.0 | 0.00 | 0.00 | 0.00 | 96 | 1006.5 |
| 20260904152332 | 85 | 207 | 0.0 | 0.0 | 0.00 | 0.00 | 0.00 | 97 | 1006.6 |
| 20260904152231 | 85 | 210 | 0.0 | 0.0 | 0.00 | 0.00 | 0.00 | 97 | 1006.6 |
| 20260904152131 | 85 | 216 | 0.0 | 0.0 | 0.00 | 0.00 | 0.00 | 97 | 1006.4 |
| 20260904152031 | 84 | 216 | 0.0 | 0.0 | 0.00 | 0.00 | 0.00 | 97 | 1006.5 |
| 20260904151931 | 84 | 216 | 0.0 | 0.0 | 0.00 | 0.00 | 0.00 | 97 | 1006.5 |
| 20260904151833 | 84 | 86 | 0.0 | 0.0 | 0.00 | 0.00 | 0.00 | 97 | 1006.5 |
| 20260904151731 | 84 | 111 | 0.0 | 0.0 | 0.00 | 0.00 | 0.00 | 97 | 1006.5 |
| 20260904151633 | 84 | 111 | 0.0 | 0.0 | 0.00 | 0.00 | 0.00 | 97 | 1006.5 |
| 20260904151531 | 84 | 79 | 0.0 | 0.0 | 0.00 | 0.00 | 0.00 | 97 | 1006.4 |
| 20260904151432 | 84 | 79 | 0.0 | 0.0 | 0.00 | 0.00 | 0.00 | 99 | 1006.5 |
| 20260904151332 | 84 | 79 | 0.0 | 0.0 | 0.00 | 0.00 | 0.00 | 99 | 1006.5 |
| 20260904151232 | 84 | 79 | 0.0 | 0.0 | 0.00 | 0.00 | 0.00 | 99 | 1006.5 |
| 20260904151132 | 84 | 79 | 0.0 | 0.0 | 0.00 | 0.00 | 0.00 | 99 | 1006.5 |
| 20260904151032 | 84 | 80 | 0.0 | 0.0 | 0.00 | 0.00 | 0.00 | 99 | 1006.5 |
| 20260904150932 | 84 | 157 | 0.0 | 0.0 | 0.00 | 0.00 | 0.00 | 99 | 1006.6 |
| 20260904150830 | 84 | 157 | 0.0 | 0.0 | 0.00 | 0.00 | 0.00 | 99 | 1006.5 |
| 20260904150731 | 84 | 157 | 0.0 | 0.0 | 0.00 | 0.00 | 0.00 | 100 | 1006.5 |
| 20260904150631 | 84 | 154 | 0.0 | 0.0 | 0.00 | 0.00 | 0.00 | 100 | 1006.6 |
| 20260904150532 | 84 | 154 | 0.0 | 0.0 | 0.00 | 0.00 | 0.00 | 100 | 1006.6 |
| 20260904150432 | 84 | 159 | 0.0 | 0.0 | 0.00 | 0.00 | 0.00 | 100 | 1006.6 |
| 20260904150332 | 84 | 159 | 0.0 | 0.0 | 0.00 | 0.00 | 0.00 | 100 | 1006.6 |
| 20260904150233 | 84 | 107 | 0.0 | 0.0 | 0.00 | 0.00 | 0.00 | 100 | 1006.5 |
| 20260904150133 | 84 | 79 | 0.0 | 0.0 | 0.00 | 0.00 | 0.00 | 100 | 1006.6 |
| 20260904150034 | 84 | 79 | 0.0 | 0.0 | 0.00 | 0.00 | 0.00 | 100 | 1006.6 |
| 20260904145931 | 84 | 79 | 0.0 | 0.0 | 0.00 | 0.00 | 0.00 | 100 | 1006.6 |
| 20260904145829 | 84 | 79 | 0.0 | 0.0 | 0.00 | 0.00 | 0.00 | 100 | 1006.7 |
| 20260904145730 | 84 | 79 | 0.0 | 0.0 | 0.00 | 0.00 | 0.00 | 100 | 1006.6 |
| 20260904145633 | 84 | 79 | 0.0 | 0.0 | 0.00 | 0.00 | 0.00 | 100 | 1006.6 |
| 20260904145530 | 84 | 79 | 0.0 | 0.0 | 0.00 | 0.00 | 0.00 | 100 | 1006.6 |
| 20260904145431 | 83 | 79 | 0.0 | 0.0 | 0.00 | 0.00 | 0.00 | 100 | 1006.6 |
| 20260904145330 | 83 | 79 | 0.0 | 0.0 | 0.00 | 0.00 | 0.00 | 100 | 1006.6 |
| 20260904145235 | 83 | 79 | 0.0 | 0.0 | 0.00 | 0.00 | 0.00 | 100 | 1006.7 |
| 20260904145132 | 83 | 79 | 0.0 | 0.0 | 0.00 | 0.00 | 0.00 | 100 | 1006.6 |
| 20260904145030 | 83 | 79 | 0.0 | 0.0 | 0.00 | 0.00 | 0.00 | 100 | 1006.6 |
| 20260904144931 | 83 | 79 | 0.0 | 0.0 | 0.00 | 0.00 | 0.00 | 100 | 1006.5 |
| 20260904144831 | 83 | 79 | 0.0 | 0.0 | 0.00 | 0.00 | 0.00 | 100 | 1006.6 |
| 20260904144733 | 83 | 79 | 0.0 | 0.0 | 0.00 | 0.00 | 0.00 | 100 | 1006.6 |
| 20260904144631 | 83 | 79 | 0.0 | 0.0 | 0.00 | 0.00 | 0.00 | 100 | 1006.6 |
| 20260904144531 | 83 | 85 | 0.0 | 0.0 | 0.00 | 0.00 | 0.00 | 100 | 1006.6 |
| 20260904144429 | 83 | 85 | 0.0 | 0.0 | 0.00 | 0.00 | 0.00 | 100 | 1006.5 |
| 20260904144334 | 83 | 85 | 0.0 | 0.0 | 0.00 | 0.00 | 0.00 | 100 | 1006.5 |
| 20260904144232 | 83 | 85 | 0.0 | 0.0 | 0.00 | 0.00 | 0.00 | 100 | 1006.7 |
| 20260904144130 | 83 | 85 | 0.0 | 0.0 | 0.00 | 0.00 | 0.00 | 100 | 1006.6 |
| 20260904144030 | 82 | 85 | 0.0 | 0.0 | 0.00 | 0.00 | 0.00 | 100 | 1006.6 |
| 20260904143933 | 82 | 85 | 0.0 | 0.0 | 0.00 | 0.00 | 0.00 | 100 | 1006.6 |
| 20260904143831 | 82 | 85 | 0.0 | 0.0 | 0.00 | 0.00 | 0.00 | 100 | 1006.7 |
| 20260904143731 | 82 | 244 | 0.0 | 0.0 | 0.00 | 0.00 | 0.00 | 100 | 1006.6 |
| 20260904143629 | 82 | 244 | 0.0 | 0.0 | 0.00 | 0.00 | 0.00 | 100 | 1006.6 |
| 20260904143531 | 82 | 243 | 0.0 | 0.0 | 0.00 | 0.00 | 0.00 | 100 | 1006.5 |
| 20260904143422 | 82 | 245 | 0.0 | 0.0 | 0.00 | 0.00 | 0.00 | 100 | 1006.5 |
| 20260904143321 | 82 | 31 | 0.0 | 0.0 | 0.00 | 0.00 | 0.00 | 100 | 1006.5 |
| 20260904143217 | 82 | 35 | 0.0 | 0.0 | 0.00 | 0.00 | 0.00 | 100 | 1006.6 |
| 20260904143105 | 82 | 35 | 0.0 | 0.0 | 0.00 | 0.00 | 0.00 | 100 | 1006.6 |
| 20260904143004 | 82 | 35 | 0.0 | 0.0 | 0.00 | 0.00 | 0.00 | 100 | 1006.5 |
| 20260904142902 | 82 | 35 | 0.0 | 0.0 | 0.00 | 0.00 | 0.00 | 100 | 1006.6 |
| 20260904142804 | 82 | 31 | 0.0 | 0.0 | 0.00 | 0.00 | 0.00 | 100 | 1006.6 |
| 20260904142706 | 82 | 31 | 0.0 | 0.0 | 0.00 | 0.00 | 0.00 | 100 | 1006.6 |
| 20260904142603 | 82 | 31 | 0.0 | 0.0 | 0.00 | 0.00 | 0.00 | 100 | 1006.6 |
| 20260904142503 | 82 | 28 | 0.0 | 0.0 | 0.00 | 0.00 | 0.00 | 100 | 1006.6 |
| 20260904142403 | 82 | 30 | 0.0 | 0.0 | 0.00 | 0.00 | 0.00 | 100 | 1006.6 |
| 20260904142306 | 81 | 0 | 0.0 | 0.0 | 0.00 | 0.00 | 0.00 | 100 | 1006.6 |
| 20260904142205 | 81 | 0 | 0.0 | 0.0 | 0.00 | 0.00 | 0.00 | 100 | 1006.6 |
| 20260904142103 | 81 | 0 | 0.0 | 0.0 | 0.00 | 0.00 | 0.00 | 100 | 1006.6 |
| 20260904142004 | 81 | 0 | 0.0 | 0.0 | 0.00 | 0.00 | 0.00 | 100 | 1006.6 |
| 20260904141904 | 81 | 0 | 0.0 | 0.0 | 0.00 | 0.00 | 0.00 | 100 | 1006.7 |
| 20260904141803 | 81 | 0 | 0.0 | 0.0 | 0.00 | 0.00 | 0.00 | 100 | 1006.6 |
| 20260904141704 | 81 | 0 | 0.0 | 0.0 | 0.00 | 0.00 | 0.00 | 100 | 1006.6 |
| 20260904141602 | 81 | 0 | 0.0 | 0.0 | 0.00 | 0.00 | 0.00 | 100 | 1006.7 |
| 20260904141505 | 81 | 0 | 0.0 | 0.0 | 0.00 | 0.00 | 0.00 | 100 | 1006.7 |
| 20260904141404 | 81 | 0 | 0.0 | 0.0 | 0.00 | 0.00 | 0.00 | 100 | 1006.7 |
| 20260904141305 | 81 | 0 | 0.0 | 0.0 | 0.00 | 0.00 | 0.00 | 100 | 1006.7 |
| 20260904141202 | 81 | 345 | 0.0 | 0.0 | 0.00 | 0.00 | 0.00 | 100 | 1006.7 |
| 20260904141104 | 81 | 90 | 0.0 | 0.0 | 0.00 | 0.00 | 0.00 | 100 | 1006.7 |
| 20260904141005 | 81 | 72 | 0.0 | 0.0 | 0.00 | 0.00 | 0.00 | 100 | 1006.7 |
| 20260904140904 | 81 | 72 | 0.0 | 0.0 | 0.00 | 0.00 | 0.00 | 100 | 1006.7 |
| 20260904140803 | 81 | 72 | 0.0 | 0.0 | 0.00 | 0.00 | 0.00 | 100 | 1006.7 |
| 20260904140702 | 81 | 66 | 0.0 | 0.0 | 0.00 | 0.00 | 0.00 | 100 | 1006.7 |
| 20260904140605 | 80 | 66 | 0.0 | 0.0 | 0.00 | 0.00 | 0.00 | 100 | 1006.7 |
| 20260904140507 | 80 | 66 | 0.0 | 0.0 | 0.00 | 0.00 | 0.00 | 100 | 1006.6 |
| 20260904140405 | 80 | 45 | 0.0 | 0.0 | 0.00 | 0.00 | 0.00 | 100 | 1006.6 |
| 20260904140304 | 80 | 45 | 0.0 | 0.0 | 0.00 | 0.00 | 0.00 | 100 | 1006.6 |
| 20260904140202 | 80 | 42 | 0.0 | 0.0 | 0.00 | 0.00 | 0.00 | 100 | 1006.6 |
| 20260904140005 | 80 | 48 | 0.0 | 0.0 | 0.00 | 0.00 | 0.00 | 100 | 1006.5 |
| 20260904135903 | 80 | 44 | 0.0 | 0.0 | 0.00 | 0.00 | 0.00 | 100 | 1006.5 |
| 20260904135804 | 80 | 35 | 0.0 | 0.0 | 0.00 | 0.00 | 0.00 | 100 | 1006.5 |
| 20260904135704 | 80 | 237 | 0.0 | 0.0 | 0.00 | 0.00 | 0.00 | 100 | 1006.5 |
| 20260904135606 | 80 | 237 | 0.0 | 0.0 | 0.00 | 0.00 | 0.00 | 100 | 1006.5 |
| 20260904135504 | 80 | 237 | 0.0 | 0.0 | 0.00 | 0.00 | 0.00 | 100 | 1006.5 |
| 20260904135403 | 80 | 237 | 0.0 | 0.0 | 0.00 | 0.00 | 0.00 | 100 | 1006.5 |
| 20260904135306 | 80 | 237 | 0.0 | 0.0 | 0.00 | 0.00 | 0.00 | 100 | 1006.5 |
| 20260904135206 | 80 | 196 | 0.0 | 0.0 | 0.00 | 0.00 | 0.00 | 100 | 1006.5 |
| 20260904135100 | 80 | 196 | 0.0 | 0.0 | 0.00 | 0.00 | 0.00 | 100 | 1006.5 |
| 20260904134959 | 80 | 195 | 0.0 | 0.0 | 0.00 | 0.00 | 0.00 | 100 | 1006.5 |
| 20260904134854 | 80 | 196 | 0.0 | 0.0 | 0.00 | 0.00 | 0.00 | 100 | 1006.4 |
| 20260904134749 | 80 | 178 | 0.0 | 0.0 | 0.00 | 0.00 | 0.00 | 100 | 1006.4 |
| 20260904134640 | 80 | 178 | 0.0 | 0.0 | 0.00 | 0.00 | 0.00 | 100 | 1006.4 |
| 20260904134533 | 80 | 178 | 0.0 | 0.0 | 0.00 | 0.00 | 0.00 | 100 | 1006.3 |
| 20260904134431 | 80 | 179 | 0.0 | 0.0 | 0.00 | 0.00 | 0.00 | 100 | 1006.4 |
| 20260904134332 | 80 | 179 | 0.0 | 0.0 | 0.00 | 0.00 | 0.00 | 100 | 1006.3 |
| 20260904134233 | 80 | 179 | 0.0 | 0.0 | 0.00 | 0.00 | 0.00 | 100 | 1006.3 |
| 20260904134134 | 80 | 179 | 0.0 | 0.0 | 0.00 | 0.00 | 0.00 | 100 | 1006.4 |
| 20260904134032 | 80 | 179 | 0.0 | 0.0 | 0.00 | 0.00 | 0.00 | 100 | 1006.3 |
| 20260904133931 | 80 | 179 | 0.0 | 0.0 | 0.00 | 0.00 | 0.00 | 100 | 1006.4 |
| 20260904133830 | 79 | 179 | 0.0 | 0.0 | 0.00 | 0.00 | 0.00 | 100 | 1006.4 |
| 20260904133729 | 79 | 179 | 0.0 | 0.0 | 0.00 | 0.00 | 0.00 | 100 | 1006.3 |
| 20260904133631 | 79 | 179 | 0.0 | 0.0 | 0.00 | 0.00 | 0.00 | 100 | 1006.3 |
| 20260904133528 | 79 | 216 | 0.0 | 0.0 | 0.00 | 0.00 | 0.00 | 100 | 1006.3 |
| 20260904133429 | 79 | 216 | 0.0 | 0.0 | 0.00 | 0.00 | 0.00 | 100 | 1006.3 |
| 20260904133329 | 79 | 216 | 0.0 | 0.0 | 0.00 | 0.00 | 0.00 | 100 | 1006.3 |
| 20260904133227 | 79 | 216 | 0.0 | 0.0 | 0.00 | 0.00 | 0.00 | 100 | 1006.2 |
| 20260904133131 | 79 | 216 | 0.0 | 0.0 | 0.00 | 0.00 | 0.00 | 100 | 1006.3 |
| 20260904133029 | 79 | 224 | 0.0 | 0.0 | 0.00 | 0.00 | 0.00 | 100 | 1006.3 |
| 20260904132929 | 79 | 224 | 0.0 | 0.0 | 0.00 | 0.00 | 0.00 | 100 | 1006.3 |
| 20260904132827 | 79 | 224 | 0.0 | 0.0 | 0.00 | 0.00 | 0.00 | 100 | 1006.3 |
| 20260904132730 | 79 | 224 | 0.0 | 0.0 | 0.00 | 0.00 | 0.00 | 100 | 1006.3 |
| 20260904132629 | 79 | 224 | 0.0 | 0.0 | 0.00 | 0.00 | 0.00 | 100 | 1006.3 |
| 20260904132529 | 79 | 224 | 0.0 | 0.0 | 0.00 | 0.00 | 0.00 | 100 | 1006.3 |
| 20260904132427 | 79 | 224 | 0.0 | 0.0 | 0.00 | 0.00 | 0.00 | 100 | 1006.3 |
| 20260904132328 | 79 | 224 | 0.0 | 0.0 | 0.00 | 0.00 | 0.00 | 100 | 1006.3 |
| 20260904132230 | 79 | 224 | 0.0 | 0.0 | 0.00 | 0.00 | 0.00 | 100 | 1006.3 |
| 20260904132127 | 79 | 224 | 0.0 | 0.0 | 0.00 | 0.00 | 0.00 | 100 | 1006.3 |
| 20260904132028 | 79 | 224 | 0.0 | 0.0 | 0.00 | 0.00 | 0.00 | 100 | 1006.3 |
| 20260904131927 | 79 | 224 | 0.0 | 0.0 | 0.00 | 0.00 | 0.00 | 100 | 1006.3 |
| 20260904131828 | 79 | 224 | 0.0 | 0.0 | 0.00 | 0.00 | 0.00 | 100 | 1006.2 |
| 20260904131728 | 79 | 224 | 0.0 | 0.0 | 0.00 | 0.00 | 0.00 | 100 | 1006.3 |
| 20260904131629 | 79 | 224 | 0.0 | 0.0 | 0.00 | 0.00 | 0.00 | 100 | 1006.3 |
| 20260904131528 | 79 | 224 | 0.0 | 0.0 | 0.00 | 0.00 | 0.00 | 100 | 1006.2 |
| 20260904131427 | 79 | 224 | 0.0 | 0.0 | 0.00 | 0.00 | 0.00 | 100 | 1006.2 |
| 20260904131331 | 79 | 224 | 0.0 | 0.0 | 0.00 | 0.00 | 0.00 | 100 | 1006.2 |
| 20260904131229 | 79 | 224 | 0.0 | 0.0 | 0.00 | 0.00 | 0.00 | 100 | 1006.2 |
| 20260904131128 | 79 | 227 | 0.0 | 0.0 | 0.00 | 0.00 | 0.00 | 100 | 1006.2 |
| 20260904131029 | 79 | 227 | 0.0 | 0.0 | 0.00 | 0.00 | 0.00 | 100 | 1006.1 |
| 20260904130930 | 79 | 227 | 0.0 | 0.0 | 0.00 | 0.00 | 0.00 | 100 | 1006.1 |
| 20260904130827 | 79 | 227 | 0.0 | 0.0 | 0.00 | 0.00 | 0.00 | 100 | 1006.2 |
| 20260904130727 | 78 | 227 | 0.0 | 0.0 | 0.00 | 0.00 | 0.00 | 100 | 1006.2 |
| 20260904130632 | 79 | 227 | 0.0 | 0.0 | 0.00 | 0.00 | 0.00 | 100 | 1006.1 |
| 20260904130527 | 78 | 227 | 0.0 | 0.0 | 0.00 | 0.00 | 0.00 | 100 | 1006.1 |
| 20260904130430 | 78 | 227 | 0.0 | 0.0 | 0.00 | 0.00 | 0.00 | 100 | 1006.1 |
| 20260904130327 | 78 | 227 | 0.0 | 0.0 | 0.00 | 0.00 | 0.00 | 100 | 1006.1 |
| 20260904130227 | 78 | 227 | 0.0 | 0.0 | 0.00 | 0.00 | 0.00 | 100 | 1006.1 |
| 20260904130132 | 78 | 227 | 0.0 | 0.0 | 0.00 | 0.00 | 0.00 | 100 | 1006.1 |
| 20260904130022 | 78 | 227 | 0.0 | 0.0 | 0.00 | 0.00 | 0.00 | 100 | 1006.1 |
| 20260904125918 | 78 | 227 | 0.0 | 0.0 | 0.00 | 0.00 | 0.00 | 100 | 1006.1 |
| 20260904125817 | 78 | 227 | 0.0 | 0.0 | 0.00 | 0.00 | 0.00 | 100 | 1006.0 |
| 20260904125715 | 78 | 227 | 0.0 | 0.0 | 0.00 | 0.00 | 0.00 | 100 | 1006.1 |
| 20260904125608 | 78 | 227 | 0.0 | 0.0 | 0.00 | 0.00 | 0.00 | 100 | 1006.0 |
| 20260904125508 | 78 | 227 | 0.0 | 0.0 | 0.00 | 0.00 | 0.00 | 100 | 1006.0 |
| 20260904125405 | 78 | 227 | 0.0 | 0.0 | 0.00 | 0.00 | 0.00 | 100 | 1006.0 |
| 20260904125305 | 78 | 227 | 0.0 | 0.0 | 0.00 | 0.00 | 0.00 | 100 | 1005.9 |
| 20260904125205 | 78 | 227 | 0.0 | 0.0 | 0.00 | 0.00 | 0.00 | 100 | 1005.9 |
| 20260904125101 | 78 | 227 | 0.0 | 0.0 | 0.00 | 0.00 | 0.00 | 100 | 1006.0 |
| 20260904125002 | 78 | 227 | 0.0 | 0.0 | 0.00 | 0.00 | 0.00 | 100 | 1005.9 |
| 20260904124905 | 78 | 227 | 0.0 | 0.0 | 0.00 | 0.00 | 0.00 | 100 | 1005.9 |
| 20260904124804 | 78 | 227 | 0.0 | 0.0 | 0.00 | 0.00 | 0.00 | 100 | 1005.9 |
| 20260904124702 | 78 | 227 | 0.0 | 0.0 | 0.00 | 0.00 | 0.00 | 100 | 1005.8 |
| 20260904124602 | 78 | 227 | 0.0 | 0.0 | 0.00 | 0.00 | 0.00 | 100 | 1005.9 |
| 20260904124503 | 78 | 227 | 0.0 | 0.0 | 0.00 | 0.00 | 0.00 | 100 | 1005.9 |
| 20260904124402 | 78 | 227 | 0.0 | 0.0 | 0.00 | 0.00 | 0.00 | 100 | 1005.8 |
| 20260904124303 | 78 | 227 | 0.0 | 0.0 | 0.00 | 0.00 | 0.00 | 100 | 1005.9 |
| 20260904124204 | 78 | 227 | 0.0 | 0.0 | 0.00 | 0.00 | 0.00 | 100 | 1005.8 |
| 20260904124103 | 78 | 227 | 0.0 | 0.0 | 0.00 | 0.00 | 0.00 | 100 | 1005.9 |
| 20260904124005 | 78 | 227 | 0.0 | 0.0 | 0.00 | 0.00 | 0.00 | 100 | 1005.9 |
| 20260904123901 | 78 | 227 | 0.0 | 0.0 | 0.00 | 0.00 | 0.00 | 100 | 1005.7 |
| 20260904123802 | 78 | 227 | 0.0 | 0.0 | 0.00 | 0.00 | 0.00 | 100 | 1005.8 |
| 20260904123704 | 78 | 227 | 0.0 | 0.0 | 0.00 | 0.00 | 0.00 | 100 | 1005.8 |
| 20260904123550 | 78 | 227 | 0.0 | 0.0 | 0.00 | 0.00 | 0.00 | 100 | 1005.8 |
| 20260904123443 | 78 | 227 | 0.0 | 0.0 | 0.00 | 0.00 | 0.00 | 100 | 1005.8 |
| 20260904123339 | 78 | 227 | 0.0 | 0.0 | 0.00 | 0.00 | 0.00 | 100 | 1005.8 |
| 20260904123236 | 78 | 227 | 0.0 | 0.0 | 0.00 | 0.00 | 0.00 | 100 | 1005.8 |
| 20260904123135 | 78 | 227 | 0.0 | 0.0 | 0.00 | 0.00 | 0.00 | 100 | 1005.8 |
| 20260904123033 | 78 | 227 | 0.0 | 0.0 | 0.00 | 0.00 | 0.00 | 100 | 1005.8 |
| 20260904122932 | 78 | 227 | 0.0 | 0.0 | 0.00 | 0.00 | 0.00 | 100 | 1005.7 |
| 20260904122831 | 78 | 227 | 0.0 | 0.0 | 0.00 | 0.00 | 0.00 | 100 | 1005.7 |
| 20260904122734 | 78 | 227 | 0.0 | 0.0 | 0.00 | 0.00 | 0.00 | 100 | 1005.7 |
| 20260904122633 | 78 | 227 | 0.0 | 0.0 | 0.00 | 0.00 | 0.00 | 100 | 1005.7 |
| 20260904122532 | 78 | 227 | 0.0 | 0.0 | 0.00 | 0.00 | 0.00 | 100 | 1005.7 |
| 20260904122433 | 78 | 227 | 0.0 | 0.0 | 0.00 | 0.00 | 0.00 | 100 | 1005.8 |
| 20260904122336 | 78 | 227 | 0.0 | 0.0 | 0.00 | 0.00 | 0.00 | 100 | 1005.8 |
| 20260904122234 | 78 | 227 | 0.0 | 0.0 | 0.00 | 0.00 | 0.00 | 100 | 1005.7 |
| 20260904122132 | 78 | 227 | 0.0 | 0.0 | 0.00 | 0.00 | 0.00 | 100 | 1005.7 |
| 20260904122033 | 78 | 227 | 0.0 | 0.0 | 0.00 | 0.00 | 0.00 | 100 | 1005.6 |
| 20260904121932 | 78 | 227 | 0.0 | 0.0 | 0.00 | 0.00 | 0.00 | 100 | 1005.7 |
| 20260904121834 | 78 | 227 | 0.0 | 0.0 | 0.00 | 0.00 | 0.00 | 100 | 1005.7 |
| 20260904121731 | 78 | 227 | 0.0 | 0.0 | 0.00 | 0.00 | 0.00 | 100 | 1005.7 |
| 20260904121633 | 78 | 227 | 0.0 | 0.0 | 0.00 | 0.00 | 0.00 | 100 | 1005.7 |
| 20260904121533 | 78 | 227 | 0.0 | 0.0 | 0.00 | 0.00 | 0.00 | 100 | 1005.7 |
| 20260904121433 | 78 | 227 | 0.0 | 0.0 | 0.00 | 0.00 | 0.00 | 100 | 1005.7 |
| 20260904121333 | 78 | 227 | 0.0 | 0.0 | 0.00 | 0.00 | 0.00 | 100 | 1005.7 |
| 20260904121231 | 78 | 227 | 0.0 | 0.0 | 0.00 | 0.00 | 0.00 | 100 | 1005.7 |
| 20260904121132 | 78 | 227 | 0.0 | 0.0 | 0.00 | 0.00 | 0.00 | 100 | 1005.6 |
| 20260904121032 | 78 | 227 | 0.0 | 0.0 | 0.00 | 0.00 | 0.00 | 100 | 1005.6 |
| 20260904120933 | 78 | 227 | 0.0 | 0.0 | 0.00 | 0.00 | 0.00 | 100 | 1005.6 |
| 20260904120832 | 78 | 227 | 0.0 | 0.0 | 0.00 | 0.00 | 0.00 | 100 | 1005.6 |
| 20260904120732 | 78 | 227 | 0.0 | 0.0 | 0.00 | 0.00 | 0.00 | 100 | 1005.7 |
| 20260904120633 | 78 | 227 | 0.0 | 0.0 | 0.00 | 0.00 | 0.00 | 100 | 1005.6 |
| 20260904120527 | 78 | 227 | 0.0 | 0.0 | 0.00 | 0.00 | 0.00 | 100 | 1005.6 |
| 20260904120428 | 78 | 227 | 0.0 | 0.0 | 0.00 | 0.00 | 0.00 | 100 | 1005.6 |
| 20260904120328 | 78 | 227 | 0.0 | 0.0 | 0.00 | 0.00 | 0.00 | 100 | 1005.6 |
| 20260904120225 | 78 | 227 | 0.0 | 0.0 | 0.00 | 0.00 | 0.00 | 100 | 1005.6 |
| 20260904120127 | 78 | 227 | 0.0 | 0.0 | 0.00 | 0.00 | 0.00 | 100 | 1005.6 |
| 20260904120026 | 78 | 227 | 0.0 | 0.0 | 0.00 | 0.00 | 0.00 | 100 | 1005.5 |
| 20260904115925 | 78 | 227 | 0.0 | 0.0 | 0.00 | 0.00 | 0.00 | 100 | 1005.5 |
| 20260904115829 | 78 | 227 | 0.0 | 0.0 | 0.00 | 0.00 | 0.00 | 100 | 1005.5 |
| 20260904115727 | 78 | 227 | 0.0 | 0.0 | 0.00 | 0.00 | 0.00 | 100 | 1005.5 |
| 20260904115625 | 78 | 227 | 0.0 | 0.0 | 0.00 | 0.00 | 0.00 | 100 | 1005.5 |
| 20260904115527 | 78 | 227 | 0.0 | 0.0 | 0.00 | 0.00 | 0.00 | 100 | 1005.6 |
| 20260904115430 | 78 | 227 | 0.0 | 0.0 | 0.00 | 0.00 | 0.00 | 100 | 1005.6 |
| 20260904115328 | 78 | 227 | 0.0 | 0.0 | 0.00 | 0.00 | 0.00 | 100 | 1005.6 |
| 20260904115227 | 78 | 227 | 0.0 | 0.0 | 0.00 | 0.00 | 0.00 | 100 | 1005.6 |
| 20260904115125 | 78 | 227 | 0.0 | 0.0 | 0.00 | 0.00 | 0.00 | 100 | 1005.6 |
| 20260904115027 | 78 | 227 | 0.0 | 0.0 | 0.00 | 0.00 | 0.00 | 100 | 1005.6 |
| 20260904114930 | 78 | 227 | 0.0 | 0.0 | 0.00 | 0.00 | 0.00 | 100 | 1005.5 |
| 20260904114826 | 78 | 227 | 0.0 | 0.0 | 0.00 | 0.00 | 0.00 | 100 | 1005.5 |
| 20260904114726 | 78 | 227 | 0.0 | 0.0 | 0.00 | 0.00 | 0.00 | 100 | 1005.6 |
| 20260904114626 | 78 | 227 | 0.0 | 0.0 | 0.00 | 0.00 | 0.00 | 100 | 1005.6 |
| 20260904114526 | 78 | 227 | 0.0 | 0.0 | 0.00 | 0.00 | 0.00 | 100 | 1005.6 |
| 20260904114426 | 78 | 227 | 0.0 | 0.0 | 0.00 | 0.00 | 0.00 | 100 | 1005.6 |
| 20260904114325 | 78 | 227 | 0.0 | 0.0 | 0.00 | 0.00 | 0.00 | 100 | 1005.5 |
| 20260904114226 | 78 | 227 | 0.0 | 0.0 | 0.00 | 0.00 | 0.00 | 100 | 1005.6 |
| 20260904114127 | 78 | 227 | 0.0 | 0.0 | 0.00 | 0.00 | 0.00 | 100 | 1005.6 |
| 20260904114028 | 78 | 227 | 0.0 | 0.0 | 0.00 | 0.00 | 0.00 | 100 | 1005.5 |
| 20260904113926 | 78 | 227 | 0.0 | 0.0 | 0.00 | 0.00 | 0.00 | 100 | 1005.6 |
| 20260904113825 | 78 | 227 | 0.0 | 0.0 | 0.00 | 0.00 | 0.00 | 100 | 1005.5 |
| 20260904113727 | 78 | 227 | 0.0 | 0.0 | 0.00 | 0.00 | 0.00 | 100 | 1005.6 |
| 20260904113626 | 78 | 227 | 0.0 | 0.0 | 0.00 | 0.00 | 0.00 | 100 | 1005.6 |
| 20260904113527 | 78 | 227 | 0.0 | 0.0 | 0.00 | 0.00 | 0.00 | 100 | 1005.5 |
| 20260904113426 | 78 | 227 | 0.0 | 0.0 | 0.00 | 0.00 | 0.00 | 100 | 1005.5 |
| 20260904113326 | 78 | 227 | 0.0 | 0.0 | 0.00 | 0.00 | 0.00 | 100 | 1005.5 |
| 20260904113225 | 78 | 227 | 0.0 | 0.0 | 0.00 | 0.00 | 0.00 | 100 | 1005.5 |
| 20260904113126 | 78 | 227 | 0.0 | 0.0 | 0.00 | 0.00 | 0.00 | 100 | 1005.5 |
| 20260904113026 | 78 | 227 | 0.0 | 0.0 | 0.00 | 0.00 | 0.00 | 100 | 1005.5 |
| 20260904112926 | 78 | 227 | 0.0 | 0.0 | 0.00 | 0.00 | 0.00 | 100 | 1005.4 |
| 20260904112826 | 78 | 227 | 0.0 | 0.0 | 0.00 | 0.00 | 0.00 | 100 | 1005.4 |
| 20260904112725 | 78 | 227 | 0.0 | 0.0 | 0.00 | 0.00 | 0.00 | 100 | 1005.3 |
| 20260904112626 | 78 | 227 | 0.0 | 0.0 | 0.00 | 0.00 | 0.00 | 100 | 1005.4 |
| 20260904112526 | 78 | 227 | 0.0 | 0.0 | 0.00 | 0.00 | 0.00 | 100 | 1005.3 |
| 20260904112424 | 78 | 227 | 0.0 | 0.0 | 0.00 | 0.00 | 0.00 | 100 | 1005.3 |
| 20260904112324 | 78 | 227 | 0.0 | 0.0 | 0.00 | 0.00 | 0.00 | 100 | 1005.3 |
| 20260904112227 | 78 | 227 | 0.0 | 0.0 | 0.00 | 0.00 | 0.00 | 100 | 1005.3 |
| 20260904112127 | 78 | 227 | 0.0 | 0.0 | 0.00 | 0.00 | 0.00 | 100 | 1005.3 |
| 20260904112024 | 78 | 227 | 0.0 | 0.0 | 0.00 | 0.00 | 0.00 | 100 | 1005.3 |
| 20260904111925 | 78 | 227 | 0.0 | 0.0 | 0.00 | 0.00 | 0.00 | 100 | 1005.3 |
| 20260904111824 | 78 | 227 | 0.0 | 0.0 | 0.00 | 0.00 | 0.00 | 100 | 1005.2 |
| 20260904111725 | 78 | 227 | 0.0 | 0.0 | 0.00 | 0.00 | 0.00 | 100 | 1005.2 |
| 20260904111626 | 78 | 227 | 0.0 | 0.0 | 0.00 | 0.00 | 0.00 | 100 | 1005.2 |
| 20260904111526 | 78 | 227 | 0.0 | 0.0 | 0.00 | 0.00 | 0.00 | 100 | 1005.3 |
| 20260904111424 | 78 | 227 | 0.0 | 0.0 | 0.00 | 0.00 | 0.00 | 100 | 1005.2 |
| 20260904111328 | 78 | 227 | 0.0 | 0.0 | 0.00 | 0.00 | 0.00 | 100 | 1005.3 |
| 20260904111226 | 78 | 227 | 0.0 | 0.0 | 0.00 | 0.00 | 0.00 | 100 | 1005.2 |
| 20260904111125 | 78 | 227 | 0.0 | 0.0 | 0.00 | 0.00 | 0.00 | 100 | 1005.3 |
| 20260904111028 | 78 | 227 | 0.0 | 0.0 | 0.00 | 0.00 | 0.00 | 100 | 1005.3 |
| 20260904110928 | 78 | 227 | 0.0 | 0.0 | 0.00 | 0.00 | 0.00 | 100 | 1005.2 |
| 20260904110824 | 78 | 227 | 0.0 | 0.0 | 0.00 | 0.00 | 0.00 | 100 | 1005.2 |
| 20260904110726 | 78 | 227 | 0.0 | 0.0 | 0.00 | 0.00 | 0.00 | 100 | 1005.2 |
| 20260904110624 | 78 | 227 | 0.0 | 0.0 | 0.00 | 0.00 | 0.00 | 100 | 1005.3 |
| 20260904110524 | 78 | 227 | 0.0 | 0.0 | 0.00 | 0.00 | 0.00 | 100 | 1005.3 |
| 20260904110426 | 78 | 227 | 0.0 | 0.0 | 0.00 | 0.00 | 0.00 | 100 | 1005.2 |
| 20260904110326 | 78 | 227 | 0.0 | 0.0 | 0.00 | 0.00 | 0.00 | 100 | 1005.3 |
| 20260904110225 | 78 | 227 | 0.0 | 0.0 | 0.00 | 0.00 | 0.00 | 100 | 1005.2 |
| 20260904110124 | 78 | 227 | 0.0 | 0.0 | 0.00 | 0.00 | 0.00 | 100 | 1005.3 |
| 20260904110027 | 78 | 227 | 0.0 | 0.0 | 0.00 | 0.00 | 0.00 | 100 | 1005.3 |
| 20260904105925 | 78 | 227 | 0.0 | 0.0 | 0.00 | 0.00 | 0.00 | 100 | 1005.3 |
| 20260904105824 | 78 | 227 | 0.0 | 0.0 | 0.00 | 0.00 | 0.00 | 100 | 1005.3 |
| 20260904105725 | 78 | 227 | 0.0 | 0.0 | 0.00 | 0.00 | 0.00 | 100 | 1005.2 |
| 20260904105624 | 78 | 227 | 0.0 | 0.0 | 0.00 | 0.00 | 0.00 | 100 | 1005.2 |
| 20260904105528 | 78 | 227 | 0.0 | 0.0 | 0.00 | 0.00 | 0.00 | 100 | 1005.1 |
| 20260904105424 | 78 | 227 | 0.0 | 0.0 | 0.00 | 0.00 | 0.00 | 100 | 1005.1 |
| 20260904105323 | 78 | 227 | 0.0 | 0.0 | 0.00 | 0.00 | 0.00 | 100 | 1005.2 |
| 20260904105225 | 78 | 227 | 0.0 | 0.0 | 0.00 | 0.00 | 0.00 | 100 | 1005.2 |
| 20260904105125 | 78 | 227 | 0.0 | 0.0 | 0.00 | 0.00 | 0.00 | 100 | 1005.1 |
| 20260904105024 | 78 | 227 | 0.0 | 0.0 | 0.00 | 0.00 | 0.00 | 100 | 1005.2 |
| 20260904104925 | 78 | 227 | 0.0 | 0.0 | 0.00 | 0.00 | 0.00 | 100 | 1005.2 |
| 20260904104825 | 78 | 227 | 0.0 | 0.0 | 0.00 | 0.00 | 0.00 | 100 | 1005.1 |
| 20260904104724 | 78 | 227 | 0.0 | 0.0 | 0.00 | 0.00 | 0.00 | 100 | 1005.1 |
| 20260904104625 | 78 | 227 | 0.0 | 0.0 | 0.00 | 0.00 | 0.00 | 100 | 1005.1 |
| 20260904104525 | 78 | 227 | 0.0 | 0.0 | 0.00 | 0.00 | 0.00 | 100 | 1005.1 |
| 20260904104424 | 78 | 227 | 0.0 | 0.0 | 0.00 | 0.00 | 0.00 | 100 | 1005.1 |
| 20260904104323 | 78 | 227 | 0.0 | 0.0 | 0.00 | 0.00 | 0.00 | 100 | 1005.1 |
| 20260904104225 | 78 | 227 | 0.0 | 0.0 | 0.00 | 0.00 | 0.00 | 100 | 1005.1 |
| 20260904104125 | 78 | 227 | 0.0 | 0.0 | 0.00 | 0.00 | 0.00 | 100 | 1005.1 |
| 20260904104025 | 78 | 227 | 0.0 | 0.0 | 0.00 | 0.00 | 0.00 | 100 | 1005.1 |
| 20260904103925 | 78 | 227 | 0.0 | 0.0 | 0.00 | 0.00 | 0.00 | 100 | 1005.1 |
| 20260904103824 | 78 | 227 | 0.0 | 0.0 | 0.00 | 0.00 | 0.00 | 100 | 1005.1 |
| 20260904103723 | 78 | 227 | 0.0 | 0.0 | 0.00 | 0.00 | 0.00 | 100 | 1005.1 |
| 20260904103617 | 78 | 227 | 0.0 | 0.0 | 0.00 | 0.00 | 0.00 | 100 | 1005.2 |
| 20260904103513 | 78 | 227 | 0.0 | 0.0 | 0.00 | 0.00 | 0.00 | 100 | 1005.1 |
| 20260904103408 | 78 | 227 | 0.0 | 0.0 | 0.00 | 0.00 | 0.00 | 100 | 1005.1 |
| 20260904103303 | 78 | 227 | 0.0 | 0.0 | 0.00 | 0.00 | 0.00 | 100 | 1005.1 |
| 20260904103204 | 78 | 227 | 0.0 | 0.0 | 0.00 | 0.00 | 0.00 | 100 | 1005.2 |
| 20260904103102 | 78 | 227 | 0.0 | 0.0 | 0.00 | 0.00 | 0.00 | 100 | 1005.1 |
| 20260904103003 | 78 | 227 | 0.0 | 0.0 | 0.00 | 0.00 | 0.00 | 100 | 1005.2 |
| 20260904102902 | 78 | 227 | 0.0 | 0.0 | 0.00 | 0.00 | 0.00 | 100 | 1005.2 |
| 20260904102804 | 78 | 227 | 0.0 | 0.0 | 0.00 | 0.00 | 0.00 | 100 | 1005.1 |
| 20260904102704 | 78 | 227 | 0.0 | 0.0 | 0.00 | 0.00 | 0.00 | 100 | 1005.2 |
| 20260904102603 | 78 | 227 | 0.0 | 0.0 | 0.00 | 0.00 | 0.00 | 100 | 1005.2 |
| 20260904102505 | 78 | 227 | 0.0 | 0.0 | 0.00 | 0.00 | 0.00 | 100 | 1005.2 |
| 20260904102405 | 78 | 227 | 0.0 | 0.0 | 0.00 | 0.00 | 0.00 | 100 | 1005.1 |
| 20260904102306 | 78 | 227 | 0.0 | 0.0 | 0.00 | 0.00 | 0.00 | 100 | 1005.1 |
| 20260904102202 | 78 | 227 | 0.0 | 0.0 | 0.00 | 0.00 | 0.00 | 100 | 1005.1 |
| 20260904102106 | 78 | 227 | 0.0 | 0.0 | 0.00 | 0.00 | 0.00 | 100 | 1005.1 |
| 20260904102007 | 78 | 227 | 0.0 | 0.0 | 0.00 | 0.00 | 0.00 | 100 | 1005.1 |
| 20260904101904 | 78 | 227 | 0.0 | 0.0 | 0.00 | 0.00 | 0.00 | 100 | 1005.1 |
| 20260904101802 | 78 | 227 | 0.0 | 0.0 | 0.00 | 0.00 | 0.00 | 100 | 1005.2 |
| 20260904101704 | 78 | 227 | 0.0 | 0.0 | 0.00 | 0.00 | 0.00 | 100 | 1005.1 |
| 20260904101604 | 78 | 227 | 0.0 | 0.0 | 0.00 | 0.00 | 0.00 | 100 | 1005.1 |
| 20260904101505 | 78 | 227 | 0.0 | 0.0 | 0.00 | 0.00 | 0.00 | 100 | 1005.1 |
| 20260904101405 | 78 | 227 | 0.0 | 0.0 | 0.00 | 0.00 | 0.00 | 100 | 1005.2 |
| 20260904101302 | 78 | 227 | 0.0 | 0.0 | 0.00 | 0.00 | 0.00 | 100 | 1005.1 |
| 20260904101204 | 78 | 227 | 0.0 | 0.0 | 0.00 | 0.00 | 0.00 | 100 | 1005.1 |
| 20260904101106 | 78 | 227 | 0.0 | 0.0 | 0.00 | 0.00 | 0.00 | 100 | 1005.1 |
| 20260904101002 | 78 | 227 | 0.0 | 0.0 | 0.00 | 0.00 | 0.00 | 100 | 1005.1 |
| 20260904100903 | 78 | 227 | 0.0 | 0.0 | 0.00 | 0.00 | 0.00 | 100 | 1005.1 |
| 20260904100801 | 78 | 227 | 0.0 | 0.0 | 0.00 | 0.00 | 0.00 | 100 | 1005.1 |
| 20260904100700 | 78 | 227 | 0.0 | 0.0 | 0.00 | 0.00 | 0.00 | 100 | 1005.0 |
| 20260904100553 | 78 | 227 | 0.0 | 0.0 | 0.00 | 0.00 | 0.00 | 100 | 1005.0 |
| 20260904100451 | 78 | 227 | 0.0 | 0.0 | 0.00 | 0.00 | 0.00 | 100 | 1005.0 |
| 20260904100349 | 78 | 227 | 0.0 | 0.0 | 0.00 | 0.00 | 0.00 | 100 | 1005.0 |
| 20260904100247 | 78 | 227 | 0.0 | 0.0 | 0.00 | 0.00 | 0.00 | 100 | 1004.9 |
| 20260904100138 | 78 | 227 | 0.0 | 0.0 | 0.00 | 0.00 | 0.00 | 100 | 1005.0 |
| 20260904100034 | 78 | 227 | 0.0 | 0.0 | 0.00 | 0.00 | 0.00 | 100 | 1005.0 |
| 20260904095933 | 78 | 227 | 0.0 | 0.0 | 0.00 | 0.00 | 0.00 | 100 | 1005.0 |
| 20260904095832 | 78 | 227 | 0.0 | 0.0 | 0.00 | 0.00 | 0.00 | 100 | 1004.9 |
| 20260904095723 | 78 | 227 | 0.0 | 0.0 | 0.00 | 0.00 | 0.00 | 100 | 1004.9 |
| 20260904095623 | 78 | 227 | 0.0 | 0.0 | 0.00 | 0.00 | 0.00 | 100 | 1004.9 |
| 20260904095524 | 78 | 227 | 0.0 | 0.0 | 0.00 | 0.00 | 0.00 | 100 | 1004.9 |
| 20260904095426 | 78 | 227 | 0.0 | 0.0 | 0.00 | 0.00 | 0.00 | 100 | 1004.9 |
| 20260904095324 | 78 | 227 | 0.0 | 0.0 | 0.00 | 0.00 | 0.00 | 100 | 1005.0 |
| 20260904095222 | 78 | 227 | 0.0 | 0.0 | 0.00 | 0.00 | 0.00 | 100 | 1004.9 |
| 20260904095123 | 78 | 227 | 0.0 | 0.0 | 0.00 | 0.00 | 0.00 | 100 | 1005.0 |
| 20260904095022 | 78 | 227 | 0.0 | 0.0 | 0.00 | 0.00 | 0.00 | 100 | 1004.9 |
| 20260904094925 | 78 | 227 | 0.0 | 0.0 | 0.00 | 0.00 | 0.00 | 100 | 1005.0 |
| 20260904094825 | 78 | 227 | 0.0 | 0.0 | 0.00 | 0.00 | 0.00 | 100 | 1004.9 |
| 20260904094724 | 78 | 227 | 0.0 | 0.0 | 0.00 | 0.00 | 0.00 | 100 | 1004.9 |
| 20260904094625 | 78 | 227 | 0.0 | 0.0 | 0.00 | 0.00 | 0.00 | 100 | 1004.9 |
| 20260904094522 | 78 | 227 | 0.0 | 0.0 | 0.00 | 0.00 | 0.00 | 100 | 1004.9 |
| 20260904094425 | 78 | 227 | 0.0 | 0.0 | 0.00 | 0.00 | 0.00 | 100 | 1004.9 |
| 20260904094324 | 78 | 227 | 0.0 | 0.0 | 0.00 | 0.00 | 0.00 | 100 | 1004.9 |
| 20260904094222 | 78 | 227 | 0.0 | 0.0 | 0.00 | 0.00 | 0.00 | 100 | 1004.9 |
| 20260904094122 | 78 | 227 | 0.0 | 0.0 | 0.00 | 0.00 | 0.00 | 100 | 1004.9 |
| 20260904094026 | 78 | 227 | 0.0 | 0.0 | 0.00 | 0.00 | 0.00 | 100 | 1004.9 |
| 20260904093923 | 78 | 227 | 0.0 | 0.0 | 0.00 | 0.00 | 0.00 | 100 | 1004.9 |
| 20260904093824 | 78 | 227 | 0.0 | 0.0 | 0.00 | 0.00 | 0.00 | 100 | 1004.8 |
| 20260904093725 | 78 | 227 | 0.0 | 0.0 | 0.00 | 0.00 | 0.00 | 100 | 1004.9 |
| 20260904093622 | 78 | 227 | 0.0 | 0.0 | 0.00 | 0.00 | 0.00 | 100 | 1004.9 |
| 20260904093523 | 78 | 227 | 0.0 | 0.0 | 0.00 | 0.00 | 0.00 | 100 | 1004.8 |
| 20260904093423 | 79 | 227 | 0.0 | 0.0 | 0.00 | 0.00 | 0.00 | 100 | 1004.8 |
| 20260904093323 | 78 | 227 | 0.0 | 0.0 | 0.00 | 0.00 | 0.00 | 100 | 1004.8 |
| 20260904093222 | 78 | 227 | 0.0 | 0.0 | 0.00 | 0.00 | 0.00 | 100 | 1004.8 |
| 20260904093124 | 78 | 227 | 0.0 | 0.0 | 0.00 | 0.00 | 0.00 | 100 | 1004.8 |
| 20260904093024 | 79 | 227 | 0.0 | 0.0 | 0.00 | 0.00 | 0.00 | 100 | 1004.9 |
| 20260904092922 | 79 | 227 | 0.0 | 0.0 | 0.00 | 0.00 | 0.00 | 100 | 1004.9 |
| 20260904092824 | 79 | 227 | 0.0 | 0.0 | 0.00 | 0.00 | 0.00 | 100 | 1004.8 |
| 20260904092725 | 79 | 227 | 0.0 | 0.0 | 0.00 | 0.00 | 0.00 | 100 | 1004.9 |
| 20260904092624 | 79 | 227 | 0.0 | 0.0 | 0.00 | 0.00 | 0.00 | 100 | 1004.9 |
| 20260904092524 | 79 | 227 | 0.0 | 0.0 | 0.00 | 0.00 | 0.00 | 100 | 1004.9 |
| 20260904092423 | 79 | 227 | 0.0 | 0.0 | 0.00 | 0.00 | 0.00 | 100 | 1004.8 |
| 20260904092322 | 79 | 227 | 0.0 | 0.0 | 0.00 | 0.00 | 0.00 | 100 | 1004.7 |
| 20260904092222 | 79 | 227 | 0.0 | 0.0 | 0.00 | 0.00 | 0.00 | 100 | 1004.7 |
| 20260904092123 | 79 | 227 | 0.0 | 0.0 | 0.00 | 0.00 | 0.00 | 100 | 1004.7 |
| 20260904092022 | 79 | 227 | 0.0 | 0.0 | 0.00 | 0.00 | 0.00 | 100 | 1004.7 |
| 20260904091915 | 79 | 227 | 0.0 | 0.0 | 0.00 | 0.00 | 0.00 | 100 | 1004.7 |
| 20260904091804 | 79 | 227 | 0.0 | 0.0 | 0.00 | 0.00 | 0.00 | 100 | 1004.7 |
| 20260904091703 | 79 | 227 | 0.0 | 0.0 | 0.00 | 0.00 | 0.00 | 100 | 1004.7 |
| 20260904091603 | 79 | 227 | 0.0 | 0.0 | 0.00 | 0.00 | 0.00 | 100 | 1004.7 |
| 20260904091503 | 79 | 227 | 0.0 | 0.0 | 0.00 | 0.00 | 0.00 | 100 | 1004.6 |
| 20260904091402 | 79 | 227 | 0.0 | 0.0 | 0.00 | 0.00 | 0.00 | 100 | 1004.6 |
| 20260904091304 | 79 | 227 | 0.0 | 0.0 | 0.00 | 0.00 | 0.00 | 100 | 1004.6 |
| 20260904091202 | 79 | 227 | 0.0 | 0.0 | 0.00 | 0.00 | 0.00 | 100 | 1004.6 |
| 20260904091104 | 79 | 227 | 0.0 | 0.0 | 0.00 | 0.00 | 0.00 | 100 | 1004.6 |
| 20260904091003 | 79 | 227 | 0.0 | 0.0 | 0.00 | 0.00 | 0.00 | 100 | 1004.6 |
| 20260904090905 | 79 | 227 | 0.0 | 0.0 | 0.00 | 0.00 | 0.00 | 100 | 1004.6 |
| 20260904090804 | 79 | 227 | 0.0 | 0.0 | 0.00 | 0.00 | 0.00 | 99 | 1004.5 |
| 20260904090704 | 79 | 227 | 0.0 | 0.0 | 0.00 | 0.00 | 0.00 | 100 | 1004.6 |
| 20260904090602 | 79 | 227 | 0.0 | 0.0 | 0.00 | 0.00 | 0.00 | 99 | 1004.6 |
| 20260904090505 | 79 | 227 | 0.0 | 0.0 | 0.00 | 0.00 | 0.00 | 99 | 1004.6 |
| 20260904090404 | 79 | 227 | 0.0 | 0.0 | 0.00 | 0.00 | 0.00 | 99 | 1004.5 |
| 20260904090303 | 79 | 227 | 0.0 | 0.0 | 0.00 | 0.00 | 0.00 | 99 | 1004.5 |
| 20260904090203 | 79 | 227 | 0.0 | 0.0 | 0.00 | 0.00 | 0.00 | 99 | 1004.5 |
| 20260904090004 | 79 | 227 | 0.0 | 0.0 | 0.00 | 0.00 | 0.00 | 99 | 1004.6 |
| 20260904085903 | 79 | 227 | 0.0 | 0.0 | 0.00 | 0.00 | 0.00 | 99 | 1004.6 |
| 20260904085803 | 79 | 227 | 0.0 | 0.0 | 0.00 | 0.00 | 0.00 | 99 | 1004.5 |
| 20260904085703 | 79 | 227 | 0.0 | 0.0 | 0.00 | 0.00 | 0.00 | 99 | 1004.5 |
| 20260904085603 | 79 | 227 | 0.0 | 0.0 | 0.00 | 0.00 | 0.00 | 99 | 1004.6 |
| 20260904085505 | 79 | 227 | 0.0 | 0.0 | 0.00 | 0.00 | 0.00 | 99 | 1004.6 |
| 20260904085401 | 79 | 227 | 0.0 | 0.0 | 0.00 | 0.00 | 0.00 | 100 | 1004.5 |
| 20260904085258 | 79 | 227 | 0.0 | 0.0 | 0.00 | 0.00 | 0.00 | 100 | 1004.5 |
| 20260904085158 | 79 | 227 | 0.0 | 0.0 | 0.00 | 0.00 | 0.00 | 100 | 1004.5 |
| 20260904085058 | 79 | 227 | 0.0 | 0.0 | 0.00 | 0.00 | 0.00 | 99 | 1004.6 |
| 20260904084957 | 79 | 227 | 0.0 | 0.0 | 0.00 | 0.00 | 0.00 | 99 | 1004.6 |
| 20260904084852 | 79 | 227 | 0.0 | 0.0 | 0.00 | 0.00 | 0.00 | 99 | 1004.6 |
| 20260904084750 | 79 | 227 | 0.0 | 0.0 | 0.00 | 0.00 | 0.00 | 99 | 1004.6 |
| 20260904084644 | 79 | 227 | 0.0 | 0.0 | 0.00 | 0.00 | 0.00 | 99 | 1004.6 |
| 20260904084537 | 79 | 227 | 0.0 | 0.0 | 0.00 | 0.00 | 0.00 | 99 | 1004.6 |
| 20260904084433 | 79 | 227 | 0.0 | 0.0 | 0.00 | 0.00 | 0.00 | 99 | 1004.6 |
| 20260904084332 | 79 | 227 | 0.0 | 0.0 | 0.00 | 0.00 | 0.00 | 99 | 1004.6 |
| 20260904084232 | 79 | 227 | 0.0 | 0.0 | 0.00 | 0.00 | 0.00 | 99 | 1004.6 |
| 20260904084134 | 79 | 227 | 0.0 | 0.0 | 0.00 | 0.00 | 0.00 | 99 | 1004.6 |
| 20260904084032 | 79 | 227 | 0.0 | 0.0 | 0.00 | 0.00 | 0.00 | 99 | 1004.6 |
| 20260904083933 | 79 | 227 | 0.0 | 0.0 | 0.00 | 0.00 | 0.00 | 99 | 1004.6 |
| 20260904083831 | 79 | 227 | 0.0 | 0.0 | 0.00 | 0.00 | 0.00 | 99 | 1004.7 |
| 20260904083733 | 79 | 227 | 0.0 | 0.0 | 0.00 | 0.00 | 0.00 | 99 | 1004.6 |
| 20260904083632 | 79 | 227 | 0.0 | 0.0 | 0.00 | 0.00 | 0.00 | 99 | 1004.6 |
| 20260904083532 | 79 | 227 | 0.0 | 0.0 | 0.00 | 0.00 | 0.00 | 99 | 1004.6 |
| 20260904083433 | 79 | 227 | 0.0 | 0.0 | 0.00 | 0.00 | 0.00 | 99 | 1004.6 |
| 20260904083335 | 79 | 227 | 0.0 | 0.0 | 0.00 | 0.00 | 0.00 | 99 | 1004.5 |
| 20260904083232 | 79 | 227 | 0.0 | 0.0 | 0.00 | 0.00 | 0.00 | 99 | 1004.5 |
| 20260904083124 | 79 | 227 | 0.0 | 0.0 | 0.00 | 0.00 | 0.00 | 99 | 1004.5 |
| 20260904083021 | 78 | 227 | 0.0 | 0.0 | 0.00 | 0.00 | 0.00 | 99 | 1004.5 |
| 20260904082920 | 79 | 227 | 0.0 | 0.0 | 0.00 | 0.00 | 0.00 | 99 | 1004.6 |
| 20260904082823 | 78 | 227 | 0.0 | 0.0 | 0.00 | 0.00 | 0.00 | 99 | 1004.6 |
| 20260904082721 | 79 | 227 | 0.0 | 0.0 | 0.00 | 0.00 | 0.00 | 99 | 1004.6 |
| 20260904082621 | 79 | 227 | 0.0 | 0.0 | 0.00 | 0.00 | 0.00 | 99 | 1004.6 |
| 20260904082521 | 79 | 227 | 0.0 | 0.0 | 0.00 | 0.00 | 0.00 | 99 | 1004.7 |
| 20260904082421 | 79 | 227 | 0.0 | 0.0 | 0.00 | 0.00 | 0.00 | 99 | 1004.7 |
| 20260904082321 | 79 | 227 | 0.0 | 0.0 | 0.00 | 0.00 | 0.00 | 99 | 1004.7 |
| 20260904082221 | 78 | 227 | 0.0 | 0.0 | 0.00 | 0.00 | 0.00 | 99 | 1004.7 |
| 20260904082121 | 79 | 227 | 0.0 | 0.0 | 0.00 | 0.00 | 0.00 | 99 | 1004.7 |
| 20260904082023 | 79 | 227 | 0.0 | 0.0 | 0.00 | 0.00 | 0.00 | 99 | 1004.7 |
| 20260904081923 | 79 | 227 | 0.0 | 0.0 | 0.00 | 0.00 | 0.00 | 99 | 1004.7 |
| 20260904081820 | 79 | 227 | 0.0 | 0.0 | 0.00 | 0.00 | 0.00 | 99 | 1004.8 |
| 20260904081722 | 79 | 227 | 0.0 | 0.0 | 0.00 | 0.00 | 0.00 | 99 | 1004.8 |
| 20260904081621 | 79 | 227 | 0.0 | 0.0 | 0.00 | 0.00 | 0.00 | 99 | 1004.8 |
| 20260904081524 | 79 | 227 | 0.0 | 0.0 | 0.00 | 0.00 | 0.00 | 99 | 1004.8 |
| 20260904081421 | 79 | 227 | 0.0 | 0.0 | 0.00 | 0.00 | 0.00 | 99 | 1004.8 |
| 20260904081323 | 78 | 227 | 0.0 | 0.0 | 0.00 | 0.00 | 0.00 | 99 | 1004.9 |
| 20260904081222 | 79 | 227 | 0.0 | 0.0 | 0.00 | 0.00 | 0.00 | 99 | 1004.8 |
| 20260904081121 | 79 | 227 | 0.0 | 0.0 | 0.00 | 0.00 | 0.00 | 99 | 1004.8 |
| 20260904081022 | 79 | 227 | 0.0 | 0.0 | 0.00 | 0.00 | 0.00 | 99 | 1004.8 |
| 20260904080921 | 79 | 227 | 0.0 | 0.0 | 0.00 | 0.00 | 0.00 | 99 | 1004.9 |
| 20260904080821 | 79 | 227 | 0.0 | 0.0 | 0.00 | 0.00 | 0.00 | 99 | 1005.0 |
| 20260904080720 | 79 | 227 | 0.0 | 0.0 | 0.00 | 0.00 | 0.00 | 99 | 1004.9 |
| 20260904080623 | 79 | 227 | 0.0 | 0.0 | 0.00 | 0.00 | 0.00 | 99 | 1004.9 |
| 20260904080520 | 79 | 227 | 0.0 | 0.0 | 0.00 | 0.00 | 0.00 | 99 | 1004.9 |
| 20260904080421 | 79 | 227 | 0.0 | 0.0 | 0.00 | 0.00 | 0.00 | 99 | 1004.9 |
| 20260904080321 | 79 | 227 | 0.0 | 0.0 | 0.00 | 0.00 | 0.00 | 99 | 1004.9 |
| 20260904080221 | 79 | 227 | 0.0 | 0.0 | 0.00 | 0.00 | 0.00 | 99 | 1005.0 |
| 20260904080120 | 79 | 227 | 0.0 | 0.0 | 0.00 | 0.00 | 0.00 | 99 | 1004.9 |
| 20260904080021 | 79 | 227 | 0.0 | 0.0 | 0.00 | 0.00 | 0.00 | 99 | 1005.0 |
| 20260904075920 | 79 | 227 | 0.0 | 0.0 | 0.00 | 0.00 | 0.00 | 99 | 1005.0 |
| 20260904075822 | 79 | 227 | 0.0 | 0.0 | 0.00 | 0.00 | 0.00 | 99 | 1005.0 |
| 20260904075723 | 79 | 227 | 0.0 | 0.0 | 0.00 | 0.00 | 0.00 | 99 | 1004.9 |
| 20260904075622 | 79 | 227 | 0.0 | 0.0 | 0.00 | 0.00 | 0.00 | 99 | 1005.0 |
| 20260904075521 | 79 | 227 | 0.0 | 0.0 | 0.00 | 0.00 | 0.00 | 99 | 1005.0 |
| 20260904075421 | 79 | 227 | 0.0 | 0.0 | 0.00 | 0.00 | 0.00 | 99 | 1004.9 |
| 20260904075324 | 79 | 227 | 0.0 | 0.0 | 0.00 | 0.00 | 0.00 | 99 | 1005.0 |
| 20260904075222 | 79 | 227 | 0.0 | 0.0 | 0.00 | 0.00 | 0.00 | 99 | 1005.0 |
| 20260904075119 | 79 | 227 | 0.0 | 0.0 | 0.00 | 0.00 | 0.00 | 99 | 1005.0 |
| 20260904075020 | 79 | 227 | 0.0 | 0.0 | 0.00 | 0.00 | 0.00 | 99 | 1005.0 |
| 20260904074922 | 79 | 227 | 0.0 | 0.0 | 0.00 | 0.00 | 0.00 | 99 | 1004.9 |
| 20260904074822 | 79 | 227 | 0.0 | 0.0 | 0.00 | 0.00 | 0.00 | 99 | 1005.0 |
| 20260904074721 | 79 | 227 | 0.0 | 0.0 | 0.00 | 0.00 | 0.00 | 99 | 1005.0 |
| 20260904074619 | 79 | 227 | 0.0 | 0.0 | 0.00 | 0.00 | 0.00 | 99 | 1004.9 |
| 20260904074519 | 79 | 227 | 0.0 | 0.0 | 0.00 | 0.00 | 0.00 | 99 | 1005.1 |
| 20260904074424 | 79 | 227 | 0.0 | 0.0 | 0.00 | 0.00 | 0.00 | 99 | 1005.0 |
| 20260904074321 | 79 | 227 | 0.0 | 0.0 | 0.00 | 0.00 | 0.00 | 99 | 1005.0 |
| 20260904074221 | 79 | 227 | 0.0 | 0.0 | 0.00 | 0.00 | 0.00 | 99 | 1005.0 |
| 20260904074121 | 79 | 227 | 0.0 | 0.0 | 0.00 | 0.00 | 0.00 | 99 | 1005.0 |
| 20260904074024 | 79 | 227 | 0.0 | 0.0 | 0.00 | 0.00 | 0.00 | 99 | 1005.1 |
| 20260904073922 | 79 | 227 | 0.0 | 0.0 | 0.00 | 0.00 | 0.00 | 99 | 1005.0 |
| 20260904073821 | 79 | 227 | 0.0 | 0.0 | 0.00 | 0.00 | 0.00 | 99 | 1005.0 |
| 20260904073721 | 79 | 227 | 0.0 | 0.0 | 0.00 | 0.00 | 0.00 | 99 | 1005.0 |
| 20260904073620 | 79 | 227 | 0.0 | 0.0 | 0.00 | 0.00 | 0.00 | 99 | 1005.1 |
| 20260904073522 | 79 | 227 | 0.0 | 0.0 | 0.00 | 0.00 | 0.00 | 99 | 1005.1 |
| 20260904073421 | 79 | 227 | 0.0 | 0.0 | 0.00 | 0.00 | 0.00 | 99 | 1005.1 |
| 20260904073322 | 79 | 227 | 0.0 | 0.0 | 0.00 | 0.00 | 0.00 | 99 | 1005.1 |
| 20260904073221 | 79 | 227 | 0.0 | 0.0 | 0.00 | 0.00 | 0.00 | 99 | 1005.1 |
| 20260904073120 | 79 | 227 | 0.0 | 0.0 | 0.00 | 0.00 | 0.00 | 99 | 1005.1 |
| 20260904073022 | 79 | 227 | 0.0 | 0.0 | 0.00 | 0.00 | 0.00 | 99 | 1005.1 |
| 20260904072919 | 79 | 227 | 0.0 | 0.0 | 0.00 | 0.00 | 0.00 | 99 | 1005.1 |
| 20260904072820 | 79 | 227 | 0.0 | 0.0 | 0.00 | 0.00 | 0.00 | 99 | 1005.1 |
| 20260904072721 | 79 | 227 | 0.0 | 0.0 | 0.00 | 0.00 | 0.00 | 99 | 1005.2 |
| 20260904072621 | 79 | 227 | 0.0 | 0.0 | 0.00 | 0.00 | 0.00 | 99 | 1005.2 |
| 20260904072521 | 79 | 227 | 0.0 | 0.0 | 0.00 | 0.00 | 0.00 | 99 | 1005.2 |
| 20260904072420 | 79 | 227 | 0.0 | 0.0 | 0.00 | 0.00 | 0.00 | 99 | 1005.2 |
| 20260904072319 | 79 | 227 | 0.0 | 0.0 | 0.00 | 0.00 | 0.00 | 99 | 1005.3 |
| 20260904072219 | 79 | 227 | 0.0 | 0.0 | 0.00 | 0.00 | 0.00 | 99 | 1005.2 |
| 20260904072121 | 79 | 227 | 0.0 | 0.0 | 0.00 | 0.00 | 0.00 | 99 | 1005.3 |
| 20260904072020 | 79 | 227 | 0.0 | 0.0 | 0.00 | 0.00 | 0.00 | 99 | 1005.3 |
| 20260904071919 | 79 | 227 | 0.0 | 0.0 | 0.00 | 0.00 | 0.00 | 99 | 1005.3 |
| 20260904071819 | 79 | 227 | 0.0 | 0.0 | 0.00 | 0.00 | 0.00 | 99 | 1005.3 |
| 20260904071719 | 79 | 227 | 0.0 | 0.0 | 0.00 | 0.00 | 0.00 | 99 | 1005.3 |
| 20260904071621 | 79 | 227 | 0.0 | 0.0 | 0.00 | 0.00 | 0.00 | 99 | 1005.3 |
| 20260904071521 | 79 | 227 | 0.0 | 0.0 | 0.00 | 0.00 | 0.00 | 99 | 1005.3 |
| 20260904071419 | 79 | 227 | 0.0 | 0.0 | 0.00 | 0.00 | 0.00 | 99 | 1005.3 |
| 20260904071324 | 79 | 227 | 0.0 | 0.0 | 0.00 | 0.00 | 0.00 | 99 | 1005.2 |
| 20260904071221 | 79 | 227 | 0.0 | 0.0 | 0.00 | 0.00 | 0.00 | 99 | 1005.2 |
| 20260904071120 | 79 | 227 | 0.0 | 0.0 | 0.00 | 0.00 | 0.00 | 99 | 1005.3 |
| 20260904071020 | 79 | 227 | 0.0 | 0.0 | 0.00 | 0.00 | 0.00 | 99 | 1005.3 |
| 20260904070920 | 79 | 227 | 0.0 | 0.0 | 0.00 | 0.00 | 0.00 | 99 | 1005.3 |
| 20260904070823 | 79 | 227 | 0.0 | 0.0 | 0.00 | 0.00 | 0.00 | 99 | 1005.3 |
| 20260904070720 | 79 | 227 | 0.0 | 0.0 | 0.00 | 0.00 | 0.00 | 99 | 1005.4 |
| 20260904070619 | 79 | 227 | 0.0 | 0.0 | 0.00 | 0.00 | 0.00 | 99 | 1005.2 |
| 20260904070522 | 79 | 227 | 0.0 | 0.0 | 0.00 | 0.00 | 0.00 | 99 | 1005.3 |
| 20260904070421 | 79 | 227 | 0.0 | 0.0 | 0.00 | 0.00 | 0.00 | 99 | 1005.3 |
| 20260904070320 | 79 | 227 | 0.0 | 0.0 | 0.00 | 0.00 | 0.00 | 99 | 1005.4 |
| 20260904070219 | 79 | 227 | 0.0 | 0.0 | 0.00 | 0.00 | 0.00 | 99 | 1005.3 |
| 20260904070119 | 79 | 227 | 0.0 | 0.0 | 0.00 | 0.00 | 0.00 | 99 | 1005.4 |
| 20260904070023 | 79 | 227 | 0.0 | 0.0 | 0.00 | 0.00 | 0.00 | 99 | 1005.3 |
| 20260904065920 | 79 | 227 | 0.0 | 0.0 | 0.00 | 0.00 | 0.00 | 99 | 1005.3 |
| 20260904065820 | 79 | 227 | 0.0 | 0.0 | 0.00 | 0.00 | 0.00 | 99 | 1005.4 |
| 20260904065719 | 79 | 227 | 0.0 | 0.0 | 0.00 | 0.00 | 0.00 | 99 | 1005.3 |
| 20260904065619 | 79 | 227 | 0.0 | 0.0 | 0.00 | 0.00 | 0.00 | 99 | 1005.4 |
| 20260904065523 | 79 | 227 | 0.0 | 0.0 | 0.00 | 0.00 | 0.00 | 99 | 1005.3 |
| 20260904065420 | 79 | 227 | 0.0 | 0.0 | 0.00 | 0.00 | 0.00 | 99 | 1005.3 |
| 20260904065318 | 79 | 227 | 0.0 | 0.0 | 0.00 | 0.00 | 0.00 | 99 | 1005.4 |
| 20260904065219 | 79 | 227 | 0.0 | 0.0 | 0.00 | 0.00 | 0.00 | 99 | 1005.3 |
| 20260904065122 | 79 | 227 | 0.0 | 0.0 | 0.00 | 0.00 | 0.00 | 99 | 1005.4 |
| 20260904065022 | 79 | 227 | 0.0 | 0.0 | 0.00 | 0.00 | 0.00 | 98 | 1005.3 |
| 20260904064920 | 79 | 227 | 0.0 | 0.0 | 0.00 | 0.00 | 0.00 | 98 | 1005.3 |
| 20260904064819 | 79 | 227 | 0.0 | 0.0 | 0.00 | 0.00 | 0.00 | 98 | 1005.3 |
| 20260904064722 | 79 | 227 | 0.0 | 0.0 | 0.00 | 0.00 | 0.00 | 98 | 1005.3 |
| 20260904064622 | 79 | 227 | 0.0 | 0.0 | 0.00 | 0.00 | 0.00 | 98 | 1005.3 |
| 20260904064520 | 79 | 227 | 0.0 | 0.0 | 0.00 | 0.00 | 0.00 | 98 | 1005.3 |
| 20260904064419 | 79 | 227 | 0.0 | 0.0 | 0.00 | 0.00 | 0.00 | 98 | 1005.2 |
| 20260904064319 | 79 | 227 | 0.0 | 0.0 | 0.00 | 0.00 | 0.00 | 98 | 1005.2 |
| 20260904064219 | 79 | 227 | 0.0 | 0.0 | 0.00 | 0.00 | 0.00 | 98 | 1005.3 |
| 20260904064121 | 79 | 227 | 0.0 | 0.0 | 0.00 | 0.00 | 0.00 | 98 | 1005.3 |
| 20260904064019 | 79 | 227 | 0.0 | 0.0 | 0.00 | 0.00 | 0.00 | 98 | 1005.2 |
| 20260904063918 | 79 | 227 | 0.0 | 0.0 | 0.00 | 0.00 | 0.00 | 98 | 1005.2 |
| 20260904063818 | 79 | 227 | 0.0 | 0.0 | 0.00 | 0.00 | 0.00 | 98 | 1005.2 |
| 20260904063721 | 79 | 227 | 0.0 | 0.0 | 0.00 | 0.00 | 0.00 | 98 | 1005.2 |
| 20260904063620 | 79 | 227 | 0.0 | 0.0 | 0.00 | 0.00 | 0.00 | 98 | 1005.2 |
| 20260904063519 | 79 | 227 | 0.0 | 0.0 | 0.00 | 0.00 | 0.00 | 98 | 1005.1 |
| 20260904063420 | 79 | 227 | 0.0 | 0.0 | 0.00 | 0.00 | 0.00 | 98 | 1005.1 |
| 20260904063318 | 79 | 227 | 0.0 | 0.0 | 0.00 | 0.00 | 0.00 | 98 | 1005.2 |
| 20260904063219 | 79 | 227 | 0.0 | 0.0 | 0.00 | 0.00 | 0.00 | 98 | 1005.2 |
| 20260904063120 | 79 | 227 | 0.0 | 0.0 | 0.00 | 0.00 | 0.00 | 98 | 1005.1 |
| 20260904063014 | 79 | 227 | 0.0 | 0.0 | 0.00 | 0.00 | 0.00 | 98 | 1005.2 |
| 20260904062912 | 79 | 227 | 0.0 | 0.0 | 0.00 | 0.00 | 0.00 | 98 | 1005.2 |
| 20260904062803 | 79 | 227 | 0.0 | 0.0 | 0.00 | 0.00 | 0.00 | 98 | 1005.2 |
| 20260904062704 | 79 | 227 | 0.0 | 0.0 | 0.00 | 0.00 | 0.00 | 98 | 1005.2 |
| 20260904062602 | 79 | 227 | 0.0 | 0.0 | 0.00 | 0.00 | 0.00 | 98 | 1005.2 |
| 20260904062502 | 79 | 227 | 0.0 | 0.0 | 0.00 | 0.00 | 0.00 | 98 | 1005.2 |
| 20260904062402 | 79 | 227 | 0.0 | 0.0 | 0.00 | 0.00 | 0.00 | 98 | 1005.2 |
| 20260904062306 | 79 | 227 | 0.0 | 0.0 | 0.00 | 0.00 | 0.00 | 98 | 1005.2 |
| 20260904062204 | 79 | 227 | 0.0 | 0.0 | 0.00 | 0.00 | 0.00 | 98 | 1005.2 |
| 20260904062105 | 79 | 227 | 0.0 | 0.0 | 0.00 | 0.00 | 0.00 | 98 | 1005.2 |
| 20260904062002 | 79 | 227 | 0.0 | 0.0 | 0.00 | 0.00 | 0.00 | 98 | 1005.3 |
| 20260904061903 | 79 | 227 | 0.0 | 0.0 | 0.00 | 0.00 | 0.00 | 98 | 1005.2 |
| 20260904061804 | 79 | 227 | 0.0 | 0.0 | 0.00 | 0.00 | 0.00 | 98 | 1005.2 |
| 20260904061705 | 79 | 227 | 0.0 | 0.0 | 0.00 | 0.00 | 0.00 | 98 | 1005.2 |
| 20260904061603 | 79 | 227 | 0.0 | 0.0 | 0.00 | 0.00 | 0.00 | 98 | 1005.3 |
| 20260904061503 | 79 | 227 | 0.0 | 0.0 | 0.00 | 0.00 | 0.00 | 98 | 1005.3 |
| 20260904061403 | 79 | 227 | 0.0 | 0.0 | 0.00 | 0.00 | 0.00 | 98 | 1005.3 |
| 20260904061305 | 79 | 227 | 0.0 | 0.0 | 0.00 | 0.00 | 0.00 | 98 | 1005.3 |
| 20260904061204 | 79 | 227 | 0.0 | 0.0 | 0.00 | 0.00 | 0.00 | 98 | 1005.3 |
| 20260904061102 | 79 | 227 | 0.0 | 0.0 | 0.00 | 0.00 | 0.00 | 98 | 1005.3 |
| 20260904061003 | 79 | 227 | 0.0 | 0.0 | 0.00 | 0.00 | 0.00 | 98 | 1005.4 |
| 20260904060906 | 79 | 227 | 0.0 | 0.0 | 0.00 | 0.00 | 0.00 | 98 | 1005.3 |
| 20260904060805 | 79 | 227 | 0.0 | 0.0 | 0.00 | 0.00 | 0.00 | 98 | 1005.4 |
| 20260904060703 | 0 | 227 | 0.0 | 0.0 | 0.00 | 0.00 | 0.00 | 1005.3 | |
| 20260904060603 | 0 | 0.0 | 0.0 | 0.00 | 0.00 | 0.00 | 1005.4 | ||
| 20260904060503 | 0 | 0.0 | 0.0 | 0.00 | 0.00 | 0.00 | 1005.2 | ||
| 20260904060405 | 0 | 0.0 | 0.0 | 0.00 | 0.00 | 0.00 | 1005.3 | ||
| 20260904060304 | 0 | 0.0 | 0.0 | 0.00 | 0.00 | 0.00 | 1005.3 | ||
| 20260904060204 | 0 | 0.0 | 0.0 | 0.00 | 0.00 | 0.00 | 1005.3 | ||
| 20260904060104 | 0 | 0.0 | 0.0 | 0.00 | 0.00 | 0.00 | 1005.3 | ||
| 20260904060006 | 0 | 0.0 | 0.0 | 0.00 | 0.00 | 0.00 | 1005.3 | ||
| 20260904055905 | 0 | 0.0 | 0.0 | 0.00 | 0.00 | 0.00 | 1005.3 | ||
| 20260904055803 | 0 | 0.0 | 0.0 | 0.00 | 0.00 | 0.00 | 1005.4 | ||
| 20260904055704 | 0 | 0.0 | 0.0 | 0.00 | 0.00 | 0.00 | 1005.3 | ||
| 20260904055605 | 0 | 0.0 | 0.0 | 0.00 | 0.00 | 0.00 | 1005.3 | ||
| 20260904055506 | 0 | 0.0 | 0.0 | 0.00 | 0.00 | 0.00 | 1005.3 | ||
| 20260904055404 | 0 | 0.0 | 0.0 | 0.00 | 0.00 | 0.00 | 1005.3 | ||
| 20260904055306 | 79 | 227 | 0.0 | 0.0 | 0.00 | 0.00 | 0.00 | 98 | 1005.4 |
| 20260904055203 | 79 | 227 | 0.0 | 0.0 | 0.00 | 0.00 | 0.00 | 98 | 1005.4 |
| 20260904055104 | 79 | 227 | 0.0 | 0.0 | 0.00 | 0.00 | 0.00 | 98 | 1005.3 |
| 20260904055006 | 79 | 227 | 0.0 | 0.0 | 0.00 | 0.00 | 0.00 | 98 | 1005.3 |
| 20260904054904 | 79 | 227 | 0.0 | 0.0 | 0.00 | 0.00 | 0.00 | 98 | 1005.3 |
| 20260904054806 | 79 | 227 | 0.0 | 0.0 | 0.00 | 0.00 | 0.00 | 98 | 1005.3 |
| 20260904054703 | 79 | 227 | 0.0 | 0.0 | 0.00 | 0.00 | 0.00 | 98 | 1005.3 |
| 20260904054605 | 79 | 227 | 0.0 | 0.0 | 0.00 | 0.00 | 0.00 | 98 | 1005.3 |
| 20260904054505 | 79 | 227 | 0.0 | 0.0 | 0.00 | 0.00 | 0.00 | 98 | 1005.3 |
| 20260904054404 | 79 | 227 | 0.0 | 0.0 | 0.00 | 0.00 | 0.00 | 98 | 1005.2 |
| 20260904054302 | 79 | 227 | 0.0 | 0.0 | 0.00 | 0.00 | 0.00 | 98 | 1005.2 |
| 20260904054204 | 79 | 227 | 0.0 | 0.0 | 0.00 | 0.00 | 0.00 | 98 | 1005.2 |
| 20260904054102 | 79 | 227 | 0.0 | 0.0 | 0.00 | 0.00 | 0.00 | 98 | 1005.2 |
| 20260904054003 | 79 | 227 | 0.0 | 0.0 | 0.00 | 0.00 | 0.00 | 98 | 1005.2 |
| 20260904053902 | 79 | 227 | 0.0 | 0.0 | 0.00 | 0.00 | 0.00 | 98 | 1005.2 |
| 20260904053805 | 79 | 227 | 0.0 | 0.0 | 0.00 | 0.00 | 0.00 | 98 | 1005.2 |
| 20260904053703 | 79 | 227 | 0.0 | 0.0 | 0.00 | 0.00 | 0.00 | 98 | 1005.3 |
| 20260904053603 | 79 | 227 | 0.0 | 0.0 | 0.00 | 0.00 | 0.00 | 98 | 1005.2 |
| 20260904053505 | 79 | 227 | 0.0 | 0.0 | 0.00 | 0.00 | 0.00 | 98 | 1005.2 |
| 20260904053404 | 79 | 227 | 0.0 | 0.0 | 0.00 | 0.00 | 0.00 | 98 | 1005.2 |
| 20260904053303 | 79 | 227 | 0.0 | 0.0 | 0.00 | 0.00 | 0.00 | 98 | 1005.1 |
| 20260904053203 | 79 | 227 | 0.0 | 0.0 | 0.00 | 0.00 | 0.00 | 98 | 1005.2 |
| 20260904053103 | 79 | 227 | 0.0 | 0.0 | 0.00 | 0.00 | 0.00 | 98 | 1005.2 |
| 20260904053006 | 79 | 227 | 0.0 | 0.0 | 0.00 | 0.00 | 0.00 | 98 | 1005.2 |
| 20260904052907 | 79 | 227 | 0.0 | 0.0 | 0.00 | 0.00 | 0.00 | 98 | 1005.2 |
| 20260904052803 | 79 | 227 | 0.0 | 0.0 | 0.00 | 0.00 | 0.00 | 98 | 1005.1 |
| 20260904052704 | 79 | 227 | 0.0 | 0.0 | 0.00 | 0.00 | 0.00 | 98 | 1005.1 |
| 20260904052604 | 79 | 227 | 0.0 | 0.0 | 0.00 | 0.00 | 0.00 | 98 | 1005.1 |
| 20260904052502 | 79 | 227 | 0.0 | 0.0 | 0.00 | 0.00 | 0.00 | 98 | 1005.1 |
| 20260904052404 | 79 | 227 | 0.0 | 0.0 | 0.00 | 0.00 | 0.00 | 98 | 1005.1 |
| 20260904052306 | 79 | 227 | 0.0 | 0.0 | 0.00 | 0.00 | 0.00 | 98 | 1005.1 |
| 20260904052202 | 79 | 227 | 0.0 | 0.0 | 0.00 | 0.00 | 0.00 | 98 | 1005.2 |
| 20260904052054 | 79 | 227 | 0.0 | 0.0 | 0.00 | 0.00 | 0.00 | 97 | 1005.1 |
| 20260904051950 | 79 | 227 | 0.0 | 0.0 | 0.00 | 0.00 | 0.00 | 97 | 1005.0 |
| 20260904051843 | 79 | 227 | 0.0 | 0.0 | 0.00 | 0.00 | 0.00 | 97 | 1005.2 |
| 20260904051741 | 79 | 227 | 0.0 | 0.0 | 0.00 | 0.00 | 0.00 | 97 | 1005.1 |
| 20260904051638 | 79 | 227 | 0.0 | 0.0 | 0.00 | 0.00 | 0.00 | 97 | 1005.1 |
| 20260904051537 | 79 | 227 | 0.0 | 0.0 | 0.00 | 0.00 | 0.00 | 98 | 1005.2 |
| 20260904051434 | 79 | 227 | 0.0 | 0.0 | 0.00 | 0.00 | 0.00 | 98 | 1005.1 |
| 20260904051333 | 79 | 227 | 0.0 | 0.0 | 0.00 | 0.00 | 0.00 | 97 | 1005.1 |
| 20260904051232 | 79 | 227 | 0.0 | 0.0 | 0.00 | 0.00 | 0.00 | 97 | 1005.2 |
| 20260904051132 | 79 | 227 | 0.0 | 0.0 | 0.00 | 0.00 | 0.00 | 97 | 1005.1 |
| 20260904051036 | 79 | 227 | 0.0 | 0.0 | 0.00 | 0.01 | 0.00 | 97 | 1005.1 |
| 20260904050931 | 79 | 227 | 0.0 | 0.0 | 0.00 | 0.01 | 0.00 | 97 | 1005.1 |
| 20260904050832 | 79 | 227 | 0.0 | 0.0 | 0.00 | 0.01 | 0.00 | 97 | 1005.1 |
| 20260904050732 | 79 | 227 | 0.0 | 0.0 | 0.00 | 0.01 | 0.00 | 97 | 1005.2 |
| 20260904050635 | 79 | 227 | 0.0 | 0.0 | 0.00 | 0.01 | 0.00 | 97 | 1005.2 |
| 20260904050534 | 79 | 227 | 0.0 | 0.0 | 0.00 | 0.01 | 0.00 | 97 | 1005.2 |
| 20260904050433 | 79 | 227 | 0.0 | 0.0 | 0.00 | 0.01 | 0.00 | 97 | 1005.1 |
| 20260904050332 | 79 | 227 | 0.0 | 0.0 | 0.00 | 0.01 | 0.00 | 97 | 1005.1 |
| 20260904050232 | 79 | 227 | 0.0 | 0.0 | 0.00 | 0.01 | 0.00 | 97 | 1005.1 |
| 20260904050135 | 79 | 227 | 0.0 | 0.0 | 0.00 | 0.02 | 0.00 | 97 | 1005.1 |
| 20260904050032 | 79 | 227 | 0.0 | 0.0 | 0.00 | 0.02 | 0.00 | 97 | 1005.1 |
| 20260904045933 | 79 | 227 | 0.0 | 0.0 | 0.00 | 0.02 | 0.00 | 97 | 1005.1 |
| 20260904045832 | 79 | 227 | 0.0 | 0.0 | 0.00 | 0.02 | 0.00 | 97 | 1005.1 |
| 20260904045733 | 79 | 227 | 0.0 | 0.0 | 0.00 | 0.02 | 0.00 | 97 | 1005.1 |
| 20260904045631 | 79 | 227 | 0.0 | 0.0 | 0.00 | 0.02 | 0.00 | 97 | 1005.1 |
| 20260904045525 | 79 | 227 | 0.0 | 0.0 | 0.00 | 0.02 | 0.00 | 97 | 1005.1 |
| 20260904045416 | 79 | 227 | 0.0 | 0.0 | 0.00 | 0.03 | 0.00 | 97 | 1005.0 |
| 20260904045312 | 79 | 227 | 0.0 | 0.0 | 0.00 | 0.03 | 0.00 | 97 | 1005.1 |
| 20260904045212 | 79 | 227 | 0.0 | 0.0 | 0.00 | 0.03 | 0.00 | 97 | 1005.1 |
| 20260904045110 | 79 | 227 | 0.0 | 0.0 | 0.00 | 0.03 | 0.00 | 97 | 1005.1 |
| 20260904045009 | 79 | 227 | 0.0 | 0.0 | 0.00 | 0.03 | 0.00 | 97 | 1005.1 |
| 20260904044909 | 79 | 227 | 0.0 | 0.0 | 0.00 | 0.03 | 0.00 | 97 | 1005.1 |
| 20260904044810 | 79 | 227 | 0.0 | 0.0 | 0.00 | 0.03 | 0.00 | 97 | 1005.1 |
| 20260904044710 | 79 | 227 | 0.0 | 0.0 | 0.00 | 0.03 | 0.00 | 97 | 1005.1 |
| 20260904044610 | 79 | 227 | 0.0 | 0.0 | 0.00 | 0.03 | 0.00 | 97 | 1005.1 |
| 20260904044508 | 79 | 227 | 0.0 | 0.0 | 0.00 | 0.03 | 0.00 | 97 | 1005.1 |
| 20260904044410 | 79 | 227 | 0.0 | 0.0 | 0.00 | 0.03 | 0.00 | 97 | 1005.1 |
| 20260904044309 | 79 | 227 | 0.0 | 0.0 | 0.00 | 0.04 | 0.00 | 97 | 1005.1 |
| 20260904044211 | 79 | 227 | 0.0 | 0.0 | 0.00 | 0.04 | 0.00 | 97 | 1005.1 |
| 20260904044110 | 79 | 227 | 0.0 | 0.0 | 0.00 | 0.04 | 0.00 | 97 | 1005.1 |
| 20260904044008 | 79 | 227 | 0.0 | 0.0 | 0.00 | 0.04 | 0.00 | 97 | 1005.1 |
| 20260904043908 | 79 | 227 | 0.0 | 0.0 | 0.00 | 0.04 | 0.00 | 97 | 1005.1 |
| 20260904043812 | 79 | 227 | 0.0 | 0.0 | 0.00 | 0.04 | 0.00 | 97 | 1005.0 |
| 20260904043708 | 79 | 227 | 0.0 | 0.0 | 0.00 | 0.04 | 0.00 | 97 | 1005.0 |
| 20260904043610 | 79 | 227 | 0.0 | 0.0 | 0.00 | 0.04 | 0.00 | 97 | 1005.0 |
| 20260904043510 | 79 | 227 | 0.0 | 0.0 | 0.00 | 0.05 | 0.00 | 97 | 1005.0 |
| 20260904043410 | 79 | 227 | 0.0 | 0.0 | 0.00 | 0.05 | 0.00 | 97 | 1005.1 |
| 20260904043310 | 79 | 227 | 0.0 | 0.0 | 0.00 | 0.05 | 0.00 | 97 | 1005.1 |
| 20260904043206 | 79 | 227 | 0.0 | 0.0 | 0.00 | 0.05 | 0.00 | 97 | 1005.2 |
| 20260904043103 | 79 | 227 | 0.0 | 0.0 | 0.00 | 0.05 | 0.00 | 97 | 1005.2 |
| 20260904043005 | 79 | 227 | 0.0 | 0.0 | 0.00 | 0.05 | 0.00 | 97 | 1005.1 |
| 20260904042905 | 79 | 227 | 0.0 | 0.0 | 0.00 | 0.06 | 0.00 | 97 | 1005.1 |
| 20260904042804 | 79 | 227 | 0.0 | 0.0 | 0.00 | 0.06 | 0.00 | 97 | 1005.2 |
| 20260904042703 | 79 | 227 | 0.0 | 0.0 | 0.00 | 0.06 | 0.00 | 97 | 1005.2 |
| 20260904042602 | 79 | 227 | 0.0 | 0.0 | 0.00 | 0.06 | 0.00 | 97 | 1005.1 |
| 20260904042503 | 79 | 227 | 0.0 | 0.0 | 0.00 | 0.06 | 0.00 | 97 | 1005.1 |
| 20260904042404 | 79 | 227 | 0.0 | 0.0 | 0.00 | 0.06 | 0.00 | 97 | 1005.1 |
| 20260904042306 | 79 | 227 | 0.0 | 0.0 | 0.00 | 0.06 | 0.00 | 97 | 1005.1 |
| 20260904042204 | 79 | 227 | 0.0 | 0.0 | 0.00 | 0.06 | 0.00 | 97 | 1005.1 |
| 20260904042103 | 79 | 227 | 0.0 | 0.0 | 0.00 | 0.06 | 0.00 | 97 | 1005.1 |
| 20260904042002 | 79 | 227 | 0.0 | 0.0 | 0.00 | 0.06 | 0.00 | 97 | 1005.1 |
| 20260904041903 | 79 | 227 | 0.0 | 0.0 | 0.00 | 0.06 | 0.00 | 97 | 1005.1 |
| 20260904041806 | 79 | 227 | 0.0 | 0.0 | 0.00 | 0.06 | 0.00 | 97 | 1005.0 |
| 20260904041704 | 79 | 227 | 0.0 | 0.0 | 0.00 | 0.06 | 0.00 | 97 | 1005.0 |
| 20260904041557 | 79 | 227 | 0.0 | 0.0 | 0.00 | 0.06 | 0.00 | 97 | 1005.1 |
| 20260904041453 | 79 | 227 | 0.0 | 0.0 | 0.00 | 0.06 | 0.00 | 97 | 1005.1 |
| 20260904041348 | 79 | 227 | 0.0 | 0.0 | 0.00 | 0.06 | 0.00 | 97 | 1005.0 |
| 20260904041245 | 79 | 227 | 0.0 | 0.0 | 0.00 | 0.06 | 0.00 | 97 | 1005.0 |
| 20260904041137 | 79 | 227 | 0.0 | 0.0 | 0.00 | 0.06 | 0.00 | 97 | 1005.0 |
| 20260904041032 | 79 | 227 | 0.0 | 0.0 | 0.00 | 0.06 | 0.00 | 97 | 1005.1 |
| 20260904040933 | 79 | 227 | 0.0 | 0.0 | 0.00 | 0.06 | 0.00 | 97 | 1005.0 |
| 20260904040833 | 79 | 227 | 0.0 | 0.0 | 0.00 | 0.06 | 0.00 | 97 | 1005.1 |
| 20260904040732 | 79 | 227 | 0.0 | 0.0 | 0.00 | 0.06 | 0.00 | 97 | 1005.1 |
| 20260904040632 | 79 | 227 | 0.0 | 0.0 | 0.00 | 0.06 | 0.00 | 97 | 1005.2 |
| 20260904040532 | 79 | 227 | 0.0 | 0.0 | 0.00 | 0.06 | 0.00 | 97 | 1005.1 |
| 20260904040433 | 79 | 227 | 0.0 | 0.0 | 0.00 | 0.06 | 0.00 | 97 | 1005.0 |
| 20260904040333 | 79 | 227 | 0.0 | 0.0 | 0.00 | 0.06 | 0.00 | 97 | 1005.1 |
| 20260904040232 | 79 | 227 | 0.0 | 0.0 | 0.00 | 0.06 | 0.00 | 97 | 1005.1 |
| 20260904040129 | 79 | 227 | 0.0 | 0.0 | 0.00 | 0.06 | 0.00 | 97 | 1005.1 |
| 20260904040007 | 79 | 227 | 0.0 | 0.0 | 0.00 | 0.06 | 0.00 | 97 | 1005.1 |
| 20260904035908 | 79 | 227 | 0.0 | 0.0 | 0.00 | 0.06 | 0.06 | 97 | 1005.1 |
| 20260904035810 | 79 | 227 | 0.0 | 0.0 | 0.00 | 0.06 | 0.06 | 97 | 1005.1 |
| 20260904035709 | 79 | 227 | 0.0 | 0.0 | 0.00 | 0.06 | 0.06 | 97 | 1005.1 |
| 20260904035608 | 79 | 227 | 0.0 | 0.0 | 0.00 | 0.06 | 0.06 | 97 | 1005.0 |
| 20260904035511 | 79 | 227 | 0.0 | 0.0 | 0.00 | 0.06 | 0.06 | 97 | 1005.1 |
| 20260904035411 | 79 | 227 | 0.0 | 0.0 | 0.00 | 0.06 | 0.06 | 97 | 1005.1 |
| 20260904035310 | 79 | 227 | 0.0 | 0.0 | 0.00 | 0.06 | 0.06 | 97 | 1005.1 |
| 20260904035207 | 79 | 227 | 0.0 | 0.0 | 0.00 | 0.06 | 0.06 | 96 | 1005.2 |
| 20260904035107 | 79 | 227 | 0.0 | 0.0 | 0.00 | 0.06 | 0.06 | 96 | 1005.2 |
| 20260904035010 | 79 | 227 | 0.0 | 0.0 | 0.00 | 0.06 | 0.06 | 96 | 1005.2 |
| 20260904034911 | 79 | 227 | 0.0 | 0.0 | 0.00 | 0.06 | 0.06 | 96 | 1005.1 |
| 20260904034807 | 79 | 227 | 0.0 | 0.0 | 0.00 | 0.06 | 0.06 | 96 | 1005.2 |
| 20260904034709 | 79 | 227 | 0.0 | 0.0 | 0.00 | 0.06 | 0.06 | 96 | 1005.1 |
| 20260904034608 | 79 | 227 | 0.0 | 0.0 | 0.00 | 0.06 | 0.06 | 96 | 1005.1 |
| 20260904034512 | 79 | 227 | 0.0 | 0.0 | 0.00 | 0.06 | 0.06 | 96 | 1005.2 |
| 20260904034410 | 79 | 227 | 0.0 | 0.0 | 0.00 | 0.06 | 0.06 | 96 | 1005.2 |
| 20260904034308 | 79 | 227 | 0.0 | 0.0 | 0.00 | 0.06 | 0.06 | 96 | 1005.2 |
| 20260904034208 | 79 | 227 | 0.0 | 0.0 | 0.00 | 0.06 | 0.06 | 96 | 1005.2 |
| 20260904034109 | 79 | 227 | 0.0 | 0.0 | 0.00 | 0.06 | 0.06 | 96 | 1005.2 |
| 20260904034009 | 79 | 227 | 0.0 | 0.0 | 0.00 | 0.06 | 0.06 | 96 | 1005.2 |
| 20260904033909 | 79 | 227 | 0.0 | 0.0 | 0.00 | 0.06 | 0.06 | 96 | 1005.1 |
| 20260904033808 | 79 | 227 | 0.0 | 0.0 | 0.00 | 0.06 | 0.06 | 96 | 1005.1 |
| 20260904033708 | 79 | 227 | 0.0 | 0.0 | 0.00 | 0.06 | 0.06 | 96 | 1005.2 |
| 20260904033610 | 79 | 227 | 0.0 | 0.0 | 0.00 | 0.06 | 0.06 | 96 | 1005.1 |
| 20260904033508 | 79 | 227 | 0.0 | 0.0 | 0.00 | 0.06 | 0.06 | 96 | 1005.1 |
| 20260904033408 | 79 | 227 | 0.0 | 0.0 | 0.00 | 0.06 | 0.06 | 96 | 1005.1 |
| 20260904033310 | 79 | 227 | 0.0 | 0.0 | 0.00 | 0.06 | 0.06 | 96 | 1005.1 |
| 20260904033210 | 79 | 227 | 0.0 | 0.0 | 0.00 | 0.06 | 0.06 | 96 | 1005.1 |
| 20260904033109 | 79 | 227 | 0.0 | 0.0 | 0.00 | 0.06 | 0.06 | 96 | 1005.1 |
| 20260904033009 | 79 | 227 | 0.0 | 0.0 | 0.00 | 0.06 | 0.06 | 96 | 1005.1 |
| 20260904032908 | 79 | 227 | 0.0 | 0.0 | 0.00 | 0.06 | 0.06 | 96 | 1005.1 |
| 20260904032807 | 79 | 227 | 0.0 | 0.0 | 0.00 | 0.06 | 0.06 | 96 | 1005.1 |
| 20260904032708 | 79 | 227 | 0.0 | 0.0 | 0.00 | 0.06 | 0.06 | 96 | 1005.1 |
| 20260904032608 | 79 | 227 | 0.0 | 0.0 | 0.00 | 0.06 | 0.06 | 96 | 1005.1 |
| 20260904032507 | 79 | 227 | 0.0 | 0.0 | 0.00 | 0.06 | 0.06 | 96 | 1005.1 |
| 20260904032408 | 79 | 227 | 0.0 | 0.0 | 0.00 | 0.06 | 0.06 | 96 | 1005.2 |
| 20260904032308 | 79 | 227 | 0.0 | 0.0 | 0.00 | 0.06 | 0.06 | 96 | 1005.1 |
| 20260904032207 | 79 | 227 | 0.0 | 0.0 | 0.00 | 0.06 | 0.06 | 96 | 1005.1 |
| 20260904032106 | 79 | 227 | 0.0 | 0.0 | 0.00 | 0.06 | 0.06 | 96 | 1005.1 |
| 20260904032007 | 79 | 227 | 0.0 | 0.0 | 0.00 | 0.06 | 0.06 | 96 | 1005.0 |
| 20260904031908 | 79 | 227 | 0.0 | 0.0 | 0.00 | 0.06 | 0.06 | 96 | 1005.1 |
| 20260904031810 | 79 | 227 | 0.0 | 0.0 | 0.00 | 0.06 | 0.06 | 96 | 1005.1 |
| 20260904031707 | 80 | 227 | 0.0 | 0.0 | 0.00 | 0.06 | 0.06 | 96 | 1005.0 |
| 20260904031606 | 79 | 227 | 0.0 | 0.0 | 0.00 | 0.06 | 0.06 | 96 | 1005.0 |
| 20260904031506 | 79 | 227 | 0.0 | 0.0 | 0.00 | 0.06 | 0.06 | 96 | 1005.0 |
| 20260904031408 | 79 | 227 | 0.0 | 0.0 | 0.00 | 0.06 | 0.06 | 96 | 1005.1 |
| 20260904031307 | 79 | 227 | 0.0 | 0.0 | 0.00 | 0.06 | 0.06 | 96 | 1005.1 |
| 20260904031206 | 79 | 227 | 0.0 | 0.0 | 0.00 | 0.06 | 0.06 | 96 | 1005.0 |
| 20260904031108 | 79 | 227 | 0.0 | 0.0 | 0.00 | 0.06 | 0.06 | 96 | 1005.1 |
| 20260904031006 | 79 | 227 | 0.0 | 0.0 | 0.00 | 0.06 | 0.06 | 96 | 1005.1 |
| 20260904030908 | 80 | 227 | 0.0 | 0.0 | 0.00 | 0.06 | 0.06 | 96 | 1005.1 |
| 20260904030806 | 80 | 227 | 0.0 | 0.0 | 0.00 | 0.06 | 0.06 | 96 | 1005.2 |
| 20260904030706 | 80 | 227 | 0.0 | 0.0 | 0.00 | 0.06 | 0.06 | 96 | 1005.1 |
| 20260904030606 | 80 | 227 | 0.0 | 0.0 | 0.00 | 0.06 | 0.06 | 96 | 1005.2 |
| 20260904030509 | 80 | 227 | 0.0 | 0.0 | 0.00 | 0.06 | 0.06 | 96 | 1005.1 |
| 20260904030406 | 80 | 227 | 0.0 | 0.0 | 0.00 | 0.06 | 0.06 | 96 | 1005.1 |
| 20260904030306 | 80 | 227 | 0.0 | 0.0 | 0.00 | 0.06 | 0.06 | 96 | 1005.1 |
| 20260904030208 | 80 | 227 | 0.0 | 0.0 | 0.00 | 0.06 | 0.06 | 96 | 1005.1 |
| 20260904030110 | 80 | 227 | 0.0 | 0.0 | 0.00 | 0.06 | 0.06 | 96 | 1005.2 |
| 20260904030007 | 80 | 227 | 0.0 | 0.0 | 0.00 | 0.06 | 0.06 | 96 | 1005.2 |
| 20260904025906 | 80 | 227 | 0.0 | 0.0 | 0.00 | 0.06 | 0.06 | 96 | 1005.2 |
| 20260904025806 | 80 | 227 | 0.0 | 0.0 | 0.00 | 0.06 | 0.06 | 96 | 1005.1 |
| 20260904025706 | 80 | 227 | 0.0 | 0.0 | 0.00 | 0.06 | 0.06 | 96 | 1005.1 |
| 20260904025607 | 80 | 227 | 0.0 | 0.0 | 0.00 | 0.06 | 0.06 | 96 | 1005.1 |
| 20260904025507 | 80 | 227 | 0.0 | 0.0 | 0.00 | 0.06 | 0.06 | 96 | 1005.1 |
| 20260904025407 | 80 | 227 | 0.0 | 0.0 | 0.00 | 0.06 | 0.06 | 96 | 1005.1 |
| 20260904025306 | 80 | 227 | 0.0 | 0.0 | 0.00 | 0.06 | 0.06 | 96 | 1005.1 |
| 20260904025207 | 80 | 227 | 0.0 | 0.0 | 0.00 | 0.06 | 0.06 | 96 | 1005.1 |
| 20260904025106 | 80 | 227 | 0.0 | 0.0 | 0.00 | 0.06 | 0.06 | 96 | 1005.1 |
| 20260904025005 | 80 | 227 | 0.0 | 0.0 | 0.00 | 0.06 | 0.06 | 96 | 1005.1 |
| 20260904024906 | 80 | 227 | 0.0 | 0.0 | 0.00 | 0.06 | 0.06 | 96 | 1005.1 |
| 20260904024806 | 80 | 227 | 0.0 | 0.0 | 0.00 | 0.06 | 0.06 | 96 | 1005.0 |
| 20260904024709 | 80 | 227 | 0.0 | 0.0 | 0.00 | 0.06 | 0.06 | 96 | 1005.0 |
| 20260904024607 | 80 | 227 | 0.0 | 0.0 | 0.00 | 0.06 | 0.06 | 96 | 1005.0 |
| 20260904024508 | 80 | 227 | 0.0 | 0.0 | 0.00 | 0.06 | 0.06 | 96 | 1005.0 |
| 20260904024407 | 80 | 227 | 0.0 | 0.0 | 0.00 | 0.06 | 0.06 | 96 | 1005.0 |
| 20260904024307 | 80 | 227 | 0.0 | 0.0 | 0.00 | 0.06 | 0.06 | 96 | 1005.0 |
| 20260904024206 | 80 | 227 | 0.0 | 0.0 | 0.00 | 0.06 | 0.06 | 95 | 1005.0 |
| 20260904024106 | 80 | 227 | 0.0 | 0.0 | 0.00 | 0.06 | 0.06 | 95 | 1004.9 |
| 20260904024007 | 80 | 227 | 0.0 | 0.0 | 0.00 | 0.06 | 0.06 | 95 | 1004.9 |
| 20260904023910 | 80 | 227 | 0.0 | 0.0 | 0.00 | 0.06 | 0.06 | 95 | 1004.8 |
| 20260904023806 | 80 | 227 | 0.0 | 0.0 | 0.00 | 0.06 | 0.06 | 95 | 1004.8 |
| 20260904023706 | 80 | 227 | 0.0 | 0.0 | 0.00 | 0.06 | 0.06 | 95 | 1004.9 |
| 20260904023606 | 80 | 227 | 0.0 | 0.0 | 0.00 | 0.06 | 0.06 | 95 | 1004.8 |
| 20260904023507 | 80 | 227 | 0.0 | 0.0 | 0.00 | 0.06 | 0.06 | 95 | 1004.8 |
| 20260904023406 | 80 | 227 | 0.0 | 0.0 | 0.00 | 0.06 | 0.06 | 95 | 1004.8 |
| 20260904023306 | 80 | 227 | 0.0 | 0.0 | 0.00 | 0.06 | 0.06 | 95 | 1004.8 |
| 20260904023205 | 80 | 227 | 0.0 | 0.0 | 0.00 | 0.06 | 0.06 | 95 | 1004.8 |
| 20260904023108 | 80 | 227 | 0.0 | 0.0 | 0.00 | 0.06 | 0.06 | 95 | 1004.8 |
| 20260904023009 | 80 | 227 | 0.0 | 0.0 | 0.00 | 0.06 | 0.06 | 95 | 1004.8 |
| 20260904022907 | 80 | 227 | 0.0 | 0.0 | 0.00 | 0.06 | 0.06 | 95 | 1004.8 |
| 20260904022805 | 80 | 227 | 0.0 | 0.0 | 0.00 | 0.06 | 0.06 | 95 | 1004.7 |
| 20260904022705 | 80 | 227 | 0.0 | 0.0 | 0.00 | 0.06 | 0.06 | 95 | 1004.7 |
| 20260904022604 | 80 | 227 | 0.0 | 0.0 | 0.00 | 0.06 | 0.06 | 95 | 1004.7 |
| 20260904022505 | 80 | 227 | 0.0 | 0.0 | 0.00 | 0.06 | 0.06 | 95 | 1004.7 |
| 20260904022405 | 80 | 227 | 0.0 | 0.0 | 0.00 | 0.06 | 0.06 | 95 | 1004.6 |
| 20260904022306 | 80 | 227 | 0.0 | 0.0 | 0.00 | 0.06 | 0.06 | 95 | 1004.6 |
| 20260904022203 | 80 | 227 | 0.0 | 0.0 | 0.00 | 0.06 | 0.06 | 95 | 1004.7 |
| 20260904022103 | 80 | 227 | 0.0 | 0.0 | 0.00 | 0.06 | 0.06 | 95 | 1004.7 |
| 20260904022008 | 80 | 227 | 0.0 | 0.0 | 0.00 | 0.06 | 0.06 | 95 | 1004.7 |
| 20260904021903 | 80 | 227 | 0.0 | 0.0 | 0.00 | 0.06 | 0.06 | 95 | 1004.7 |
| 20260904021803 | 80 | 227 | 0.0 | 0.0 | 0.00 | 0.06 | 0.06 | 95 | 1004.7 |
| 20260904021702 | 80 | 227 | 0.0 | 0.0 | 0.00 | 0.06 | 0.06 | 95 | 1004.6 |
| 20260904021600 | 80 | 227 | 0.0 | 0.0 | 0.00 | 0.06 | 0.06 | 95 | 1004.7 |
| 20260904021458 | 80 | 227 | 0.0 | 0.0 | 0.00 | 0.06 | 0.06 | 95 | 1004.6 |
| 20260904021356 | 80 | 227 | 0.0 | 0.0 | 0.00 | 0.06 | 0.06 | 95 | 1004.7 |
| 20260904021252 | 80 | 227 | 0.0 | 0.0 | 0.00 | 0.06 | 0.06 | 95 | 1004.7 |
| 20260904021148 | 80 | 227 | 0.0 | 0.0 | 0.00 | 0.06 | 0.06 | 95 | 1004.6 |
| 20260904021044 | 80 | 227 | 0.0 | 0.0 | 0.00 | 0.06 | 0.06 | 95 | 1004.6 |
| 20260904020936 | 80 | 227 | 0.0 | 0.0 | 0.00 | 0.06 | 0.06 | 95 | 1004.6 |
| 20260904020831 | 80 | 227 | 0.0 | 0.0 | 0.00 | 0.06 | 0.06 | 95 | 1004.6 |
| 20260904020732 | 80 | 227 | 0.0 | 0.0 | 0.00 | 0.06 | 0.06 | 95 | 1004.6 |
| 20260904020634 | 80 | 227 | 0.0 | 0.0 | 0.00 | 0.06 | 0.06 | 95 | 1004.6 |
| 20260904020533 | 80 | 227 | 0.0 | 0.0 | 0.00 | 0.06 | 0.06 | 95 | 1004.6 |
| 20260904020432 | 80 | 227 | 0.0 | 0.0 | 0.00 | 0.06 | 0.06 | 95 | 1004.6 |
| 20260904020329 | 80 | 227 | 0.0 | 0.0 | 0.00 | 0.06 | 0.06 | 95 | 1004.6 |
| 20260904020226 | 80 | 227 | 0.0 | 0.0 | 0.00 | 0.06 | 0.06 | 95 | 1004.6 |
| 20260904020119 | 80 | 227 | 0.0 | 0.0 | 0.00 | 0.06 | 0.06 | 95 | 1004.5 |
| 20260904020017 | 80 | 227 | 0.0 | 0.0 | 0.00 | 0.06 | 0.06 | 95 | 1004.5 |
| 20260904015909 | 80 | 227 | 0.0 | 0.0 | 0.00 | 0.06 | 0.06 | 95 | 1004.5 |
| 20260904015807 | 80 | 227 | 0.0 | 0.0 | 0.00 | 0.06 | 0.06 | 95 | 1004.5 |
| 20260904015705 | 80 | 227 | 0.0 | 0.0 | 0.00 | 0.06 | 0.06 | 94 | 1004.5 |
| 20260904015605 | 80 | 227 | 0.0 | 0.0 | 0.00 | 0.06 | 0.06 | 94 | 1004.5 |
| 20260904015509 | 80 | 227 | 0.0 | 0.0 | 0.00 | 0.06 | 0.06 | 94 | 1004.5 |
| 20260904015406 | 80 | 227 | 0.0 | 0.0 | 0.00 | 0.06 | 0.06 | 94 | 1004.4 |
| 20260904015306 | 80 | 227 | 0.0 | 0.0 | 0.00 | 0.06 | 0.06 | 94 | 1004.4 |
| 20260904015205 | 80 | 227 | 0.0 | 0.0 | 0.00 | 0.06 | 0.06 | 94 | 1004.4 |
| 20260904015105 | 80 | 227 | 0.0 | 0.0 | 0.00 | 0.06 | 0.06 | 94 | 1004.4 |
| 20260904015007 | 80 | 227 | 0.0 | 0.0 | 0.00 | 0.06 | 0.06 | 94 | 1004.4 |
| 20260904014905 | 80 | 227 | 0.0 | 0.0 | 0.00 | 0.06 | 0.06 | 94 | 1004.4 |
| 20260904014805 | 80 | 227 | 0.0 | 0.0 | 0.00 | 0.06 | 0.06 | 94 | 1004.4 |
| 20260904014705 | 80 | 227 | 0.0 | 0.0 | 0.00 | 0.06 | 0.06 | 94 | 1004.4 |
| 20260904014605 | 80 | 227 | 0.0 | 0.0 | 0.00 | 0.06 | 0.06 | 94 | 1004.3 |
| 20260904014507 | 80 | 227 | 0.0 | 0.0 | 0.00 | 0.06 | 0.06 | 94 | 1004.3 |
| 20260904014405 | 80 | 227 | 0.0 | 0.0 | 0.00 | 0.06 | 0.06 | 94 | 1004.3 |
| 20260904014305 | 80 | 227 | 0.0 | 0.0 | 0.00 | 0.06 | 0.06 | 94 | 1004.3 |
| 20260904014207 | 80 | 227 | 0.0 | 0.0 | 0.00 | 0.06 | 0.06 | 94 | 1004.2 |
| 20260904014105 | 81 | 227 | 0.0 | 0.0 | 0.00 | 0.06 | 0.06 | 94 | 1004.2 |
| 20260904014007 | 81 | 227 | 0.0 | 0.0 | 0.00 | 0.06 | 0.06 | 94 | 1004.2 |
| 20260904013908 | 81 | 227 | 0.0 | 0.0 | 0.00 | 0.06 | 0.06 | 94 | 1004.2 |
| 20260904013806 | 81 | 227 | 0.0 | 0.0 | 0.00 | 0.06 | 0.06 | 94 | 1004.1 |
| 20260904013705 | 81 | 227 | 0.0 | 0.0 | 0.00 | 0.06 | 0.06 | 94 | 1004.1 |
| 20260904013605 | 81 | 227 | 0.0 | 0.0 | 0.00 | 0.06 | 0.06 | 94 | 1004.1 |
| 20260904013506 | 81 | 227 | 0.0 | 0.0 | 0.00 | 0.06 | 0.06 | 94 | 1004.2 |
| 20260904013405 | 81 | 227 | 0.0 | 0.0 | 0.00 | 0.06 | 0.06 | 94 | 1004.1 |
| 20260904013304 | 81 | 227 | 0.0 | 0.0 | 0.00 | 0.06 | 0.06 | 94 | 1004.1 |
| 20260904013207 | 81 | 227 | 0.0 | 0.0 | 0.00 | 0.06 | 0.06 | 94 | 1004.1 |
| 20260904013106 | 81 | 227 | 0.0 | 0.0 | 0.00 | 0.06 | 0.06 | 94 | 1004.1 |
| 20260904013005 | 81 | 227 | 0.0 | 0.0 | 0.00 | 0.06 | 0.06 | 94 | 1004.1 |
| 20260904012904 | 81 | 227 | 0.0 | 0.0 | 0.00 | 0.06 | 0.06 | 94 | 1004.1 |
| 20260904012804 | 81 | 227 | 0.0 | 0.0 | 0.00 | 0.06 | 0.06 | 94 | 1004.0 |
| 20260904012705 | 81 | 227 | 0.0 | 0.0 | 0.00 | 0.06 | 0.06 | 93 | 1004.0 |
| 20260904012605 | 81 | 227 | 0.0 | 0.0 | 0.00 | 0.06 | 0.06 | 93 | 1004.0 |
| 20260904012505 | 81 | 227 | 0.0 | 0.0 | 0.00 | 0.06 | 0.06 | 93 | 1004.0 |
| 20260904012404 | 81 | 227 | 0.0 | 0.0 | 0.00 | 0.06 | 0.06 | 93 | 1004.1 |
| 20260904012306 | 81 | 227 | 0.0 | 0.0 | 0.00 | 0.06 | 0.06 | 93 | 1004.0 |
| 20260904012204 | 81 | 227 | 0.0 | 0.0 | 0.00 | 0.06 | 0.06 | 93 | 1004.0 |
| 20260904012104 | 81 | 227 | 0.0 | 0.0 | 0.00 | 0.06 | 0.06 | 93 | 1004.0 |
| 20260904012007 | 81 | 227 | 0.0 | 0.0 | 0.00 | 0.06 | 0.06 | 93 | 1003.9 |
| 20260904011905 | 81 | 227 | 0.0 | 0.0 | 0.00 | 0.06 | 0.06 | 93 | 1004.0 |
| 20260904011804 | 81 | 227 | 0.0 | 0.0 | 0.00 | 0.06 | 0.06 | 93 | 1004.0 |
| 20260904011702 | 81 | 227 | 0.0 | 0.0 | 0.00 | 0.06 | 0.06 | 93 | 1004.0 |
| 20260904011604 | 81 | 227 | 0.0 | 0.0 | 0.00 | 0.06 | 0.06 | 93 | 1004.0 |
| 20260904011502 | 81 | 227 | 0.0 | 0.0 | 0.00 | 0.06 | 0.06 | 93 | 1004.0 |
| 20260904011405 | 81 | 227 | 0.0 | 0.0 | 0.00 | 0.06 | 0.06 | 93 | 1004.0 |
| 20260904011303 | 81 | 227 | 0.0 | 0.0 | 0.00 | 0.06 | 0.06 | 93 | 1004.1 |
| 20260904011202 | 81 | 227 | 0.0 | 0.0 | 0.00 | 0.06 | 0.06 | 93 | 1004.0 |
| 20260904011106 | 81 | 227 | 0.0 | 0.0 | 0.00 | 0.06 | 0.06 | 93 | 1004.1 |
| 20260904011005 | 81 | 227 | 0.0 | 0.0 | 0.00 | 0.06 | 0.06 | 93 | 1004.1 |
| 20260904010903 | 81 | 227 | 0.0 | 0.0 | 0.00 | 0.06 | 0.06 | 93 | 1004.1 |
| 20260904010802 | 81 | 227 | 0.0 | 0.0 | 0.00 | 0.06 | 0.06 | 93 | 1004.0 |
| 20260904010704 | 81 | 227 | 0.0 | 0.0 | 0.00 | 0.06 | 0.06 | 93 | 1004.0 |
| 20260904010602 | 81 | 227 | 0.0 | 0.0 | 0.00 | 0.06 | 0.06 | 93 | 1004.0 |
| 20260904010506 | 81 | 227 | 0.0 | 0.0 | 0.00 | 0.06 | 0.06 | 93 | 1004.0 |
| 20260904010402 | 81 | 227 | 0.0 | 0.0 | 0.00 | 0.06 | 0.06 | 93 | 1004.0 |
| 20260904010304 | 81 | 227 | 0.0 | 0.0 | 0.00 | 0.06 | 0.06 | 93 | 1004.0 |
| 20260904010203 | 81 | 227 | 0.0 | 0.0 | 0.00 | 0.06 | 0.06 | 93 | 1004.0 |
| 20260904010106 | 81 | 227 | 0.0 | 0.0 | 0.00 | 0.06 | 0.06 | 92 | 1004.1 |
| 20260904010003 | 81 | 227 | 0.0 | 0.0 | 0.00 | 0.06 | 0.06 | 92 | 1004.1 |
| 20260904005903 | 81 | 227 | 0.0 | 0.0 | 0.00 | 0.06 | 0.06 | 92 | 1004.1 |
| 20260904005803 | 81 | 227 | 0.0 | 0.0 | 0.00 | 0.06 | 0.06 | 92 | 1004.1 |
| 20260904005707 | 81 | 227 | 0.0 | 0.0 | 0.00 | 0.06 | 0.06 | 92 | 1004.1 |
| 20260904005605 | 81 | 227 | 0.0 | 0.0 | 0.00 | 0.06 | 0.06 | 92 | 1004.1 |
| 20260904005503 | 82 | 227 | 0.0 | 0.0 | 0.00 | 0.06 | 0.06 | 92 | 1004.0 |
| 20260904005403 | 82 | 227 | 0.0 | 0.0 | 0.00 | 0.06 | 0.06 | 92 | 1004.0 |
| 20260904005306 | 82 | 227 | 0.0 | 0.0 | 0.00 | 0.06 | 0.06 | 92 | 1004.0 |
| 20260904005205 | 82 | 227 | 0.0 | 0.0 | 0.00 | 0.06 | 0.06 | 92 | 1004.0 |
| 20260904005104 | 82 | 227 | 0.0 | 0.0 | 0.00 | 0.06 | 0.06 | 92 | 1003.9 |
| 20260904005003 | 82 | 227 | 0.0 | 0.0 | 0.00 | 0.06 | 0.06 | 92 | 1003.9 |
| 20260904004859 | 82 | 227 | 0.0 | 0.0 | 0.00 | 0.06 | 0.06 | 92 | 1004.0 |
| 20260904004759 | 82 | 227 | 0.0 | 0.0 | 0.00 | 0.06 | 0.06 | 92 | 1003.9 |
| 20260904004649 | 82 | 227 | 0.0 | 0.0 | 0.00 | 0.06 | 0.06 | 92 | 1004.0 |
| 20260904004548 | 82 | 226 | 0.0 | 0.0 | 0.00 | 0.06 | 0.06 | 92 | 1004.0 |
| 20260904004443 | 82 | 226 | 0.0 | 0.0 | 0.00 | 0.06 | 0.06 | 92 | 1004.0 |
| 20260904004341 | 82 | 226 | 0.0 | 0.0 | 0.00 | 0.06 | 0.06 | 92 | 1004.0 |
| 20260904004241 | 82 | 226 | 0.0 | 0.0 | 0.00 | 0.06 | 0.06 | 92 | 1004.0 |
| 20260904004138 | 82 | 226 | 0.0 | 0.0 | 0.00 | 0.06 | 0.06 | 92 | 1004.0 |
| 20260904004033 | 82 | 226 | 0.0 | 0.0 | 0.00 | 0.06 | 0.06 | 92 | 1004.0 |
| 20260904003931 | 82 | 226 | 0.0 | 0.0 | 0.00 | 0.06 | 0.06 | 92 | 1004.0 |
| 20260904003832 | 82 | 226 | 0.0 | 0.0 | 0.00 | 0.06 | 0.06 | 92 | 1004.0 |
| 20260904003732 | 82 | 226 | 0.0 | 0.0 | 0.00 | 0.06 | 0.06 | 92 | 1004.0 |
| 20260904003632 | 82 | 226 | 0.0 | 0.0 | 0.00 | 0.06 | 0.06 | 92 | 1004.1 |
| 20260904003531 | 82 | 226 | 0.0 | 0.0 | 0.00 | 0.06 | 0.06 | 92 | 1004.1 |
| 20260904003427 | 82 | 226 | 0.0 | 0.0 | 0.00 | 0.06 | 0.06 | 92 | 1004.1 |
| 20260904003302 | 82 | 226 | 0.0 | 0.0 | 0.00 | 0.06 | 0.06 | 92 | 1004.0 |
| 20260904003204 | 82 | 209 | 0.0 | 0.0 | 0.00 | 0.06 | 0.06 | 92 | 1004.1 |
| 20260904003102 | 82 | 209 | 0.0 | 0.0 | 0.00 | 0.06 | 0.06 | 92 | 1004.1 |
| 20260904003005 | 82 | 209 | 0.0 | 0.0 | 0.00 | 0.06 | 0.06 | 92 | 1004.1 |
| 20260904002903 | 82 | 207 | 0.0 | 0.0 | 0.00 | 0.06 | 0.06 | 92 | 1004.2 |
| 20260904002759 | 82 | 207 | 0.0 | 0.0 | 0.00 | 0.06 | 0.06 | 92 | 1004.2 |
| 20260904002653 | 82 | 207 | 0.0 | 0.0 | 0.00 | 0.06 | 0.06 | 91 | 1004.2 |
| 20260904002548 | 82 | 207 | 0.0 | 0.0 | 0.00 | 0.06 | 0.06 | 91 | 1004.2 |
| 20260904002447 | 82 | 207 | 0.0 | 0.0 | 0.00 | 0.06 | 0.06 | 91 | 1004.2 |
| 20260904002343 | 82 | 207 | 0.0 | 0.0 | 0.00 | 0.06 | 0.06 | 91 | 1004.1 |
| 20260904002233 | 82 | 207 | 0.0 | 0.0 | 0.00 | 0.07 | 0.06 | 91 | 1004.1 |
| 20260904002134 | 82 | 207 | 0.0 | 0.0 | 0.00 | 0.07 | 0.06 | 91 | 1004.1 |
| 20260904002024 | 82 | 207 | 0.0 | 0.0 | 0.00 | 0.07 | 0.06 | 91 | 1004.1 |
| 20260904001919 | 82 | 207 | 0.0 | 0.0 | 0.00 | 0.07 | 0.06 | 91 | 1004.1 |
| 20260904001818 | 82 | 207 | 0.0 | 0.0 | 0.00 | 0.07 | 0.06 | 91 | 1004.1 |
| 20260904001717 | 82 | 207 | 0.0 | 0.0 | 0.00 | 0.07 | 0.06 | 91 | 1004.1 |
| 20260904001614 | 82 | 207 | 0.0 | 0.0 | 0.00 | 0.07 | 0.06 | 91 | 1004.2 |
| 20260904001509 | 82 | 207 | 0.0 | 0.0 | 0.00 | 0.07 | 0.06 | 91 | 1004.2 |
| 20260904001406 | 82 | 207 | 0.0 | 0.0 | 0.00 | 0.07 | 0.06 | 91 | 1004.2 |
| 20260904001304 | 82 | 207 | 0.0 | 0.0 | 0.00 | 0.07 | 0.06 | 91 | 1004.1 |
| 20260904001204 | 82 | 207 | 0.0 | 0.0 | 0.00 | 0.07 | 0.06 | 91 | 1004.2 |
| 20260904001104 | 82 | 207 | 0.0 | 0.0 | 0.00 | 0.07 | 0.06 | 91 | 1004.2 |
| 20260904001005 | 82 | 207 | 0.0 | 0.0 | 0.00 | 0.07 | 0.06 | 91 | 1004.2 |
| 20260904000906 | 82 | 207 | 0.0 | 0.0 | 0.00 | 0.07 | 0.06 | 91 | 1004.2 |
| 20260904000759 | 82 | 207 | 0.0 | 0.0 | 0.00 | 0.07 | 0.06 | 91 | 1004.2 |
| 20260904000658 | 82 | 207 | 0.0 | 0.0 | 0.00 | 0.07 | 0.06 | 91 | 1004.2 |
| 20260904000549 | 82 | 207 | 0.0 | 0.0 | 0.00 | 0.07 | 0.06 | 91 | 1004.2 |
| 20260904000447 | 82 | 207 | 0.0 | 0.0 | 0.00 | 0.08 | 0.06 | 91 | 1004.3 |
| 20260904000344 | 82 | 207 | 0.0 | 0.0 | 0.00 | 0.08 | 0.06 | 91 | 1004.3 |
| 20260904000242 | 82 | 207 | 0.0 | 0.0 | 0.00 | 0.09 | 0.06 | 91 | 1004.3 |
| 20260904000138 | 83 | 207 | 0.0 | 0.0 | 0.00 | 0.09 | 0.06 | 91 | 1004.4 |
| 20260904000039 | 83 | 207 | 0.0 | 0.0 | 0.00 | 0.10 | 0.06 | 91 | 1004.3 |
| 20260903235936 | 83 | 207 | 0.0 | 0.0 | 0.00 | 0.11 | 0.06 | 91 | 1004.3 |
| 20260903235837 | 83 | 209 | 0.0 | 0.0 | 0.00 | 0.11 | 0.06 | 91 | 1004.3 |
| 20260903235734 | 83 | 209 | 0.0 | 0.0 | 0.00 | 0.11 | 0.06 | 91 | 1004.3 |
| 20260903235631 | 83 | 209 | 0.0 | 0.0 | 0.00 | 0.11 | 0.06 | 91 | 1004.3 |
| 20260903235531 | 83 | 209 | 0.0 | 0.0 | 0.00 | 0.11 | 0.06 | 91 | 1004.3 |
| 20260903235432 | 83 | 209 | 0.0 | 0.0 | 0.00 | 0.11 | 0.06 | 91 | 1004.2 |
| 20260903235325 | 83 | 209 | 0.0 | 0.0 | 0.00 | 0.11 | 0.06 | 91 | 1004.2 |
| 20260903235219 | 83 | 209 | 0.0 | 0.0 | 0.00 | 0.11 | 0.06 | 91 | 1004.3 |
| 20260903235103 | 83 | 207 | 0.0 | 0.0 | 0.00 | 0.11 | 0.06 | 91 | 1004.2 |
| 20260903235006 | 83 | 207 | 0.0 | 0.0 | 0.00 | 0.11 | 0.06 | 91 | 1004.3 |
| 20260903234903 | 83 | 212 | 0.0 | 0.0 | 0.00 | 0.11 | 0.06 | 91 | 1004.3 |
| 20260903234804 | 83 | 223 | 0.0 | 0.0 | 0.00 | 0.11 | 0.06 | 90 | 1004.2 |
| 20260903234702 | 83 | 223 | 0.0 | 0.0 | 0.00 | 0.11 | 0.06 | 90 | 1004.3 |
| 20260903234603 | 83 | 223 | 0.0 | 0.0 | 0.00 | 0.11 | 0.06 | 90 | 1004.4 |
| 20260903234503 | 83 | 223 | 0.0 | 0.0 | 0.00 | 0.11 | 0.06 | 90 | 1004.4 |
| 20260903234404 | 83 | 223 | 0.0 | 0.0 | 0.00 | 0.11 | 0.06 | 90 | 1004.4 |
| 20260903234302 | 83 | 223 | 0.0 | 0.0 | 0.00 | 0.11 | 0.06 | 90 | 1004.4 |
| 20260903234205 | 83 | 171 | 0.0 | 0.0 | 0.00 | 0.11 | 0.06 | 90 | 1004.4 |
| 20260903234103 | 83 | 171 | 0.0 | 0.0 | 0.00 | 0.11 | 0.06 | 90 | 1004.4 |
| 20260903234005 | 83 | 172 | 0.0 | 0.0 | 0.00 | 0.11 | 0.06 | 90 | 1004.5 |
| 20260903233903 | 83 | 179 | 0.0 | 0.0 | 0.00 | 0.11 | 0.06 | 90 | 1004.5 |
| 20260903233804 | 83 | 250 | 0.0 | 0.0 | 0.00 | 0.11 | 0.06 | 90 | 1004.4 |
| 20260903233654 | 83 | 248 | 0.0 | 0.0 | 0.00 | 0.11 | 0.06 | 90 | 1004.5 |
| 20260903233551 | 83 | 248 | 0.0 | 0.0 | 0.00 | 0.11 | 0.06 | 90 | 1004.5 |
| 20260903233442 | 83 | 248 | 0.0 | 0.0 | 0.00 | 0.11 | 0.06 | 90 | 1004.5 |
| 20260903233340 | 83 | 244 | 0.0 | 0.0 | 0.00 | 0.11 | 0.06 | 90 | 1004.5 |
| 20260903233243 | 83 | 244 | 0.0 | 0.0 | 0.00 | 0.11 | 0.06 | 90 | 1004.5 |
| 20260903233143 | 83 | 244 | 0.0 | 0.0 | 0.00 | 0.11 | 0.06 | 90 | 1004.5 |
| 20260903233032 | 83 | 244 | 0.0 | 0.0 | 0.00 | 0.11 | 0.06 | 90 | 1004.5 |
| 20260903232931 | 83 | 63 | 0.0 | 0.0 | 0.00 | 0.11 | 0.06 | 90 | 1004.4 |
| 20260903232832 | 83 | 63 | 0.0 | 0.0 | 0.00 | 0.11 | 0.06 | 90 | 1004.5 |
| 20260903232732 | 83 | 63 | 0.0 | 0.0 | 0.00 | 0.11 | 0.06 | 90 | 1004.5 |
| 20260903232631 | 83 | 63 | 0.0 | 0.0 | 0.00 | 0.11 | 0.06 | 90 | 1004.5 |
| 20260903232527 | 83 | 63 | 0.0 | 0.0 | 0.00 | 0.11 | 0.06 | 90 | 1004.5 |
| 20260903232426 | 83 | 63 | 0.0 | 0.0 | 0.00 | 0.11 | 0.06 | 90 | 1004.6 |
| 20260903232323 | 83 | 63 | 0.0 | 0.0 | 0.00 | 0.11 | 0.06 | 90 | 1004.5 |
| 20260903232219 | 83 | 63 | 0.0 | 0.0 | 0.00 | 0.11 | 0.06 | 90 | 1004.6 |
| 20260903232117 | 83 | 63 | 0.0 | 0.0 | 0.00 | 0.11 | 0.06 | 90 | 1004.5 |
| 20260903232015 | 83 | 63 | 0.0 | 0.0 | 0.00 | 0.11 | 0.06 | 90 | 1004.6 |
| 20260903231910 | 83 | 63 | 0.0 | 0.0 | 0.00 | 0.11 | 0.06 | 90 | 1004.6 |
| 20260903231809 | 83 | 63 | 0.0 | 0.0 | 0.00 | 0.11 | 0.06 | 90 | 1004.6 |
| 20260903231704 | 83 | 63 | 0.0 | 0.0 | 0.00 | 0.11 | 0.06 | 90 | 1004.6 |
| 20260903231604 | 83 | 63 | 0.0 | 0.0 | 0.00 | 0.11 | 0.06 | 90 | 1004.6 |
| 20260903231505 | 83 | 62 | 0.0 | 0.0 | 0.00 | 0.11 | 0.06 | 90 | 1004.6 |
| 20260903231403 | 83 | 62 | 0.0 | 0.0 | 0.00 | 0.11 | 0.06 | 90 | 1004.7 |
| 20260903231304 | 83 | 62 | 0.0 | 0.0 | 0.00 | 0.11 | 0.06 | 90 | 1004.7 |
| 20260903231205 | 82 | 62 | 0.0 | 0.0 | 0.00 | 0.11 | 0.06 | 90 | 1004.7 |
| 20260903231107 | 82 | 94 | 0.0 | 0.0 | 0.00 | 0.11 | 0.06 | 90 | 1004.8 |
| 20260903231004 | 82 | 94 | 0.0 | 0.0 | 0.00 | 0.11 | 0.06 | 90 | 1004.7 |
| 20260903230902 | 82 | 94 | 0.0 | 0.0 | 0.00 | 0.11 | 0.06 | 90 | 1004.7 |
| 20260903230803 | 82 | 54 | 0.0 | 0.0 | 0.00 | 0.11 | 0.06 | 90 | 1004.7 |
| 20260903230705 | 82 | 54 | 0.0 | 0.0 | 0.00 | 0.11 | 0.06 | 90 | 1004.7 |
| 20260903230603 | 82 | 54 | 0.0 | 0.0 | 0.00 | 0.11 | 0.06 | 90 | 1004.7 |
| 20260903230503 | 82 | 54 | 0.0 | 0.0 | 0.00 | 0.11 | 0.06 | 90 | 1004.6 |
| 20260903230402 | 82 | 54 | 0.0 | 0.0 | 0.00 | 0.11 | 0.06 | 90 | 1004.6 |
| 20260903230302 | 82 | 54 | 0.0 | 0.0 | 0.00 | 0.11 | 0.06 | 90 | 1004.6 |
| 20260903230203 | 82 | 54 | 0.0 | 0.0 | 0.00 | 0.11 | 0.06 | 90 | 1004.7 |
| 20260903230005 | 82 | 54 | 0.0 | 0.0 | 0.00 | 0.11 | 0.06 | 90 | 1004.6 |
| 20260903225903 | 82 | 54 | 0.0 | 0.0 | 0.00 | 0.11 | 0.06 | 90 | 1004.6 |
| 20260903225802 | 82 | 54 | 0.0 | 0.0 | 0.00 | 0.11 | 0.06 | 90 | 1004.7 |
| 20260903225702 | 82 | 54 | 0.0 | 0.0 | 0.00 | 0.11 | 0.06 | 90 | 1004.6 |
| 20260903225602 | 82 | 54 | 0.0 | 0.0 | 0.00 | 0.11 | 0.06 | 90 | 1004.7 |
| 20260903225502 | 82 | 54 | 0.0 | 0.0 | 0.00 | 0.11 | 0.06 | 90 | 1004.7 |
| 20260903225403 | 82 | 54 | 0.0 | 0.0 | 0.00 | 0.11 | 0.06 | 90 | 1004.6 |
| 20260903225301 | 82 | 55 | 0.0 | 0.0 | 0.00 | 0.11 | 0.06 | 90 | 1004.7 |
| 20260903225202 | 82 | 55 | 0.0 | 0.0 | 0.00 | 0.11 | 0.06 | 91 | 1004.7 |
| 20260903225102 | 82 | 54 | 0.0 | 0.0 | 0.00 | 0.11 | 0.06 | 91 | 1004.7 |
| 20260903225001 | 82 | 54 | 0.0 | 0.0 | 0.00 | 0.11 | 0.06 | 91 | 1004.7 |
| 20260903224900 | 82 | 44 | 0.0 | 0.0 | 0.00 | 0.11 | 0.06 | 91 | 1004.7 |
| 20260903224800 | 82 | 44 | 0.0 | 0.0 | 0.00 | 0.11 | 0.06 | 91 | 1004.7 |
| 20260903224701 | 82 | 44 | 0.0 | 0.0 | 0.00 | 0.11 | 0.06 | 91 | 1004.6 |
| 20260903224600 | 82 | 44 | 0.0 | 0.0 | 0.00 | 0.11 | 0.06 | 91 | 1004.7 |
| 20260903224503 | 82 | 44 | 0.0 | 0.0 | 0.00 | 0.11 | 0.06 | 91 | 1004.7 |
| 20260903224403 | 82 | 35 | 0.0 | 0.0 | 0.00 | 0.11 | 0.06 | 91 | 1004.7 |
| 20260903224301 | 82 | 223 | 0.0 | 0.0 | 0.00 | 0.11 | 0.06 | 91 | 1004.6 |
| 20260903224201 | 82 | 62 | 0.0 | 0.0 | 0.00 | 0.11 | 0.06 | 91 | 1004.7 |
| 20260903224102 | 81 | 32 | 0.0 | 0.0 | 0.00 | 0.11 | 0.06 | 91 | 1004.6 |
| 20260903224004 | 81 | 347 | 0.0 | 0.0 | 0.00 | 0.11 | 0.06 | 92 | 1004.6 |
| 20260903223902 | 81 | 6 | 0.0 | 0.0 | 0.00 | 0.11 | 0.06 | 92 | 1004.6 |
| 20260903223802 | 81 | 100 | 0.0 | 0.0 | 0.00 | 0.11 | 0.06 | 92 | 1004.6 |
| 20260903223700 | 81 | 32 | 0.0 | 0.0 | 0.00 | 0.11 | 0.06 | 92 | 1004.6 |
| 20260903223603 | 81 | 61 | 0.0 | 0.0 | 0.00 | 0.11 | 0.06 | 92 | 1004.6 |
| 20260903223503 | 81 | 28 | 0.0 | 0.0 | 0.00 | 0.11 | 0.06 | 92 | 1004.5 |
| 20260903223400 | 81 | 34 | 0.0 | 0.0 | 0.00 | 0.11 | 0.06 | 92 | 1004.6 |
| 20260903223302 | 81 | 34 | 0.0 | 0.0 | 0.00 | 0.11 | 0.06 | 92 | 1004.6 |
| 20260903223200 | 81 | 34 | 0.0 | 0.0 | 0.00 | 0.11 | 0.06 | 92 | 1004.6 |
| 20260903223103 | 81 | 34 | 0.0 | 0.0 | 0.00 | 0.11 | 0.06 | 93 | 1004.5 |
| 20260903223001 | 81 | 24 | 0.0 | 0.0 | 0.00 | 0.11 | 0.06 | 93 | 1004.5 |
| 20260903222901 | 81 | 21 | 0.0 | 0.0 | 0.00 | 0.11 | 0.06 | 93 | 1004.5 |
| 20260903222801 | 81 | 23 | 0.0 | 0.0 | 0.00 | 0.11 | 0.06 | 93 | 1004.6 |
| 20260903222705 | 81 | 0 | 0.0 | 0.0 | 0.00 | 0.11 | 0.06 | 93 | 1004.6 |
| 20260903222602 | 81 | 358 | 0.0 | 0.0 | 0.00 | 0.11 | 0.06 | 93 | 1004.6 |
| 20260903222501 | 81 | 65 | 0.0 | 0.0 | 0.00 | 0.11 | 0.06 | 93 | 1004.6 |
| 20260903222402 | 81 | 80 | 0.0 | 0.0 | 0.00 | 0.11 | 0.06 | 93 | 1004.5 |
| 20260903222300 | 81 | 80 | 0.0 | 0.0 | 0.00 | 0.11 | 0.06 | 93 | 1004.6 |
| 20260903222201 | 81 | 93 | 0.0 | 0.0 | 0.00 | 0.11 | 0.06 | 93 | 1004.5 |
| 20260903222101 | 81 | 178 | 0.0 | 0.0 | 0.00 | 0.11 | 0.06 | 93 | 1004.6 |
| 20260903222002 | 81 | 358 | 0.0 | 0.0 | 0.00 | 0.11 | 0.06 | 93 | 1004.5 |
| 20260903221901 | 81 | 355 | 0.0 | 0.0 | 0.00 | 0.11 | 0.06 | 93 | 1004.6 |
| 20260903221801 | 81 | 357 | 0.0 | 0.0 | 0.00 | 0.11 | 0.06 | 94 | 1004.5 |
| 20260903221701 | 81 | 42 | 0.0 | 0.0 | 0.00 | 0.11 | 0.06 | 94 | 1004.5 |
| 20260903221600 | 81 | 42 | 0.0 | 0.0 | 0.00 | 0.11 | 0.06 | 94 | 1004.6 |
| 20260903221500 | 80 | 42 | 0.0 | 0.0 | 0.00 | 0.11 | 0.06 | 94 | 1004.5 |
| 20260903221400 | 80 | 42 | 0.0 | 0.0 | 0.00 | 0.11 | 0.06 | 94 | 1004.6 |
| 20260903221302 | 81 | 42 | 0.0 | 0.0 | 0.00 | 0.11 | 0.06 | 94 | 1004.7 |
| 20260903221202 | 80 | 63 | 0.0 | 0.0 | 0.00 | 0.11 | 0.06 | 94 | 1004.6 |
| 20260903221101 | 80 | 69 | 0.0 | 0.0 | 0.00 | 0.11 | 0.06 | 94 | 1004.6 |
| 20260903221002 | 80 | 69 | 0.0 | 0.0 | 0.00 | 0.11 | 0.06 | 94 | 1004.6 |
| 20260903220901 | 80 | 69 | 0.0 | 0.0 | 0.00 | 0.11 | 0.06 | 94 | 1004.6 |
| 20260903220801 | 80 | 69 | 0.0 | 0.0 | 0.00 | 0.11 | 0.06 | 94 | 1004.5 |
| 20260903220659 | 80 | 69 | 0.0 | 0.0 | 0.00 | 0.11 | 0.06 | 94 | 1004.6 |
| 20260903220601 | 80 | 354 | 0.0 | 0.0 | 0.00 | 0.11 | 0.06 | 94 | 1004.7 |
| 20260903220500 | 80 | 354 | 0.0 | 0.0 | 0.00 | 0.11 | 0.06 | 94 | 1004.7 |
| 20260903220401 | 80 | 354 | 0.0 | 0.0 | 0.00 | 0.11 | 0.06 | 94 | 1004.7 |
| 20260903220300 | 80 | 82 | 0.0 | 0.0 | 0.00 | 0.11 | 0.06 | 94 | 1004.7 |
| 20260903220201 | 80 | 82 | 0.0 | 0.0 | 0.00 | 0.11 | 0.06 | 94 | 1004.8 |
| 20260903220059 | 80 | 82 | 0.0 | 0.0 | 0.00 | 0.11 | 0.06 | 94 | 1004.8 |
| 20260903220001 | 80 | 82 | 0.0 | 0.0 | 0.00 | 0.11 | 0.06 | 94 | 1004.8 |
| 20260903215901 | 80 | 82 | 0.0 | 0.0 | 0.00 | 0.11 | 0.06 | 94 | 1004.7 |
| 20260903215802 | 80 | 82 | 0.0 | 0.0 | 0.00 | 0.11 | 0.06 | 94 | 1004.8 |
| 20260903215703 | 80 | 82 | 0.0 | 0.0 | 0.00 | 0.11 | 0.06 | 94 | 1004.8 |
| 20260903215604 | 80 | 82 | 0.0 | 0.0 | 0.00 | 0.11 | 0.06 | 94 | 1004.7 |
| 20260903215502 | 80 | 82 | 0.0 | 0.0 | 0.00 | 0.11 | 0.06 | 94 | 1004.7 |
| 20260903215400 | 80 | 89 | 0.0 | 0.0 | 0.00 | 0.11 | 0.06 | 94 | 1004.8 |
| 20260903215259 | 80 | 89 | 0.0 | 0.0 | 0.00 | 0.11 | 0.06 | 94 | 1004.9 |
| 20260903215203 | 80 | 89 | 0.0 | 0.0 | 0.00 | 0.11 | 0.06 | 94 | 1004.8 |
| 20260903215100 | 80 | 89 | 0.0 | 0.0 | 0.00 | 0.11 | 0.06 | 94 | 1004.8 |
| 20260903215002 | 80 | 89 | 0.0 | 0.0 | 0.00 | 0.11 | 0.06 | 94 | 1004.8 |
| 20260903214859 | 80 | 89 | 0.0 | 0.0 | 0.00 | 0.11 | 0.06 | 94 | 1004.9 |
| 20260903214800 | 80 | 89 | 0.0 | 0.0 | 0.00 | 0.11 | 0.06 | 94 | 1004.9 |
| 20260903214700 | 80 | 89 | 0.0 | 0.0 | 0.00 | 0.11 | 0.06 | 94 | 1004.9 |
| 20260903214600 | 80 | 89 | 0.0 | 0.0 | 0.00 | 0.11 | 0.06 | 94 | 1004.9 |
| 20260903214502 | 80 | 89 | 0.0 | 0.0 | 0.00 | 0.11 | 0.06 | 94 | 1005.0 |
| 20260903214402 | 80 | 89 | 0.0 | 0.0 | 0.00 | 0.11 | 0.06 | 95 | 1005.0 |
| 20260903214259 | 80 | 89 | 0.0 | 0.0 | 0.00 | 0.11 | 0.06 | 95 | 1005.1 |
| 20260903214200 | 80 | 89 | 0.0 | 0.0 | 0.00 | 0.11 | 0.06 | 95 | 1005.1 |
| 20260903214100 | 80 | 89 | 0.0 | 0.0 | 0.00 | 0.11 | 0.06 | 95 | 1005.1 |
| 20260903214000 | 80 | 89 | 0.0 | 0.0 | 0.00 | 0.11 | 0.06 | 95 | 1005.1 |
| 20260903213901 | 80 | 66 | 0.0 | 0.0 | 0.00 | 0.11 | 0.06 | 95 | 1005.2 |
| 20260903213802 | 80 | 66 | 0.0 | 0.0 | 0.00 | 0.11 | 0.06 | 95 | 1005.2 |
| 20260903213659 | 80 | 66 | 0.0 | 0.0 | 0.00 | 0.11 | 0.06 | 95 | 1005.3 |
| 20260903213601 | 80 | 66 | 0.0 | 0.0 | 0.00 | 0.11 | 0.06 | 95 | 1005.2 |
| 20260903213501 | 80 | 66 | 0.0 | 0.0 | 0.00 | 0.11 | 0.06 | 95 | 1005.3 |
| 20260903213401 | 80 | 68 | 0.0 | 0.0 | 0.00 | 0.11 | 0.06 | 95 | 1005.3 |
| 20260903213302 | 80 | 68 | 0.0 | 0.0 | 0.00 | 0.11 | 0.06 | 95 | 1005.4 |
| 20260903213158 | 80 | 65 | 0.0 | 0.0 | 0.00 | 0.11 | 0.06 | 95 | 1005.3 |
| 20260903213059 | 80 | 63 | 0.0 | 0.0 | 0.00 | 0.11 | 0.06 | 95 | 1005.3 |
| 20260903213002 | 80 | 63 | 0.0 | 0.0 | 0.00 | 0.11 | 0.06 | 95 | 1005.3 |
| 20260903212900 | 80 | 63 | 0.0 | 0.0 | 0.00 | 0.11 | 0.06 | 95 | 1005.3 |
| 20260903212759 | 80 | 63 | 0.0 | 0.0 | 0.00 | 0.11 | 0.06 | 95 | 1005.4 |
| 20260903212701 | 80 | 63 | 0.0 | 0.0 | 0.00 | 0.11 | 0.06 | 95 | 1005.4 |
| 20260903212559 | 80 | 63 | 0.0 | 0.0 | 0.00 | 0.11 | 0.06 | 95 | 1005.3 |
| 20260903212502 | 80 | 63 | 0.0 | 0.0 | 0.00 | 0.11 | 0.06 | 95 | 1005.4 |
| 20260903212359 | 80 | 63 | 0.0 | 0.0 | 0.00 | 0.11 | 0.06 | 95 | 1005.4 |
| 20260903212300 | 80 | 63 | 0.0 | 0.0 | 0.00 | 0.11 | 0.06 | 95 | 1005.4 |
| 20260903212200 | 80 | 63 | 0.0 | 0.0 | 0.00 | 0.11 | 0.06 | 95 | 1005.4 |
| 20260903212103 | 80 | 63 | 0.0 | 0.0 | 0.00 | 0.11 | 0.06 | 95 | 1005.5 |
| 20260903212000 | 80 | 62 | 0.0 | 0.0 | 0.00 | 0.11 | 0.06 | 95 | 1005.4 |
| 20260903211900 | 80 | 61 | 0.0 | 0.0 | 0.00 | 0.11 | 0.06 | 95 | 1005.4 |
| 20260903211800 | 80 | 61 | 0.0 | 0.0 | 0.00 | 0.11 | 0.06 | 95 | 1005.5 |
| 20260903211700 | 80 | 61 | 0.0 | 0.0 | 0.00 | 0.11 | 0.06 | 95 | 1005.5 |
| 20260903211600 | 80 | 61 | 0.0 | 0.0 | 0.00 | 0.11 | 0.06 | 95 | 1005.5 |
| 20260903211500 | 80 | 300 | 0.0 | 0.0 | 0.00 | 0.11 | 0.06 | 95 | 1005.5 |
| 20260903211358 | 80 | 62 | 0.0 | 0.0 | 0.00 | 0.11 | 0.06 | 95 | 1005.5 |
| 20260903211259 | 80 | 62 | 0.0 | 0.0 | 0.00 | 0.11 | 0.06 | 95 | 1005.5 |
| 20260903211159 | 80 | 62 | 0.0 | 0.0 | 0.00 | 0.11 | 0.06 | 95 | 1005.5 |
| 20260903211100 | 80 | 62 | 0.0 | 0.0 | 0.00 | 0.11 | 0.06 | 95 | 1005.5 |
| 20260903210959 | 80 | 62 | 0.0 | 0.0 | 0.00 | 0.11 | 0.06 | 95 | 1005.6 |
| 20260903210859 | 80 | 62 | 0.0 | 0.0 | 0.00 | 0.11 | 0.06 | 95 | 1005.5 |
| 20260903210802 | 80 | 62 | 0.0 | 0.0 | 0.00 | 0.11 | 0.06 | 95 | 1005.5 |
| 20260903210700 | 80 | 351 | 0.0 | 0.0 | 0.00 | 0.11 | 0.06 | 95 | 1005.5 |
| 20260903210600 | 80 | 351 | 0.0 | 0.0 | 0.00 | 0.11 | 0.06 | 95 | 1005.5 |
| 20260903210500 | 80 | 351 | 0.0 | 0.0 | 0.00 | 0.11 | 0.06 | 95 | 1005.5 |
| 20260903210402 | 80 | 351 | 0.0 | 0.0 | 0.00 | 0.11 | 0.06 | 95 | 1005.5 |
| 20260903210259 | 80 | 350 | 0.0 | 0.0 | 0.00 | 0.11 | 0.06 | 95 | 1005.5 |
| 20260903210158 | 80 | 30 | 0.0 | 0.0 | 0.00 | 0.11 | 0.06 | 95 | 1005.7 |
| 20260903210058 | 80 | 30 | 0.0 | 0.0 | 0.00 | 0.11 | 0.06 | 95 | 1005.6 |